KC5DAQ-23 Weather Reports


time (UTC)temp
C
wind
direction
speed
KPH
gust
KPH
rain 1hr
cm
rain 24hr
cm
rain mn
cm
humidity
%
barometer
mb
20220627203140 33 75 9.7 19.3 0.00 0.00 0.00 63 1016.8
20220627203041 33 80 9.7 19.3 0.00 0.00 0.00 62 1016.8
20220627202943 33 30 8.0 19.3 0.00 0.00 0.00 62 1016.9
20220627202840 33 39 9.7 19.3 0.00 0.00 0.00 62 1016.9
20220627202740 33 49 9.7 19.3 0.00 0.00 0.00 61 1016.9
20220627202641 33 47 9.7 19.3 0.00 0.00 0.00 61 1017.0
20220627202541 33 103 8.0 19.3 0.00 0.00 0.00 61 1017.0
20220627202439 33 55 9.7 19.3 0.00 0.00 0.00 61 1017.1
20220627202337 33 54 11.3 19.3 0.00 0.00 0.00 61 1017.1
20220627202235 33 75 11.3 19.3 0.00 0.00 0.00 61 1017.2
20220627202135 33 85 9.7 19.3 0.00 0.00 0.00 61 1017.2
20220627202038 33 52 9.7 19.3 0.00 0.00 0.00 62 1017.2
20220627201939 33 52 9.7 19.3 0.00 0.00 0.00 62 1017.2
20220627201834 33 75 8.0 19.3 0.00 0.00 0.00 62 1017.3
20220627201735 33 90 8.0 19.3 0.00 0.00 0.00 62 1017.3
20220627201636 33 31 8.0 19.3 0.00 0.00 0.00 62 1017.4
20220627201535 33 52 8.0 19.3 0.00 0.00 0.00 62 1017.4
20220627201435 33 45 8.0 19.3 0.00 0.00 0.00 62 1017.5
20220627201335 33 45 9.7 19.3 0.00 0.00 0.00 62 1017.4
20220627201236 32 83 8.0 19.3 0.00 0.00 0.00 62 1017.5
20220627201134 32 78 4.8 20.9 0.00 0.00 0.00 62 1017.5
20220627201034 32 23 4.8 20.9 0.00 0.00 0.00 61 1017.6
20220627200936 32 21 8.0 20.9 0.00 0.00 0.00 61 1017.6
20220627200834 33 1 11.3 20.9 0.00 0.00 0.00 62 1017.6
20220627200734 33 0 9.7 20.9 0.00 0.00 0.00 62 1017.6
20220627200635 33 1 6.4 20.9 0.00 0.00 0.00 63 1017.7
20220627200538 33 31 6.4 20.9 0.00 0.00 0.00 62 1017.6
20220627200435 33 44 9.7 20.9 0.00 0.00 0.00 62 1017.7
20220627200336 33 73 9.7 20.9 0.00 0.00 0.00 62 1017.7
20220627200235 33 42 9.7 20.9 0.00 0.00 0.00 63 1017.6
20220627200136 33 73 8.0 19.3 0.00 0.00 0.00 63 1017.6
20220627200034 33 16 6.4 19.3 0.00 0.00 0.00 63 1017.7
20220627195939 33 54 8.0 19.3 0.00 0.00 0.00 63 1017.7
20220627195835 33 63 11.3 19.3 0.00 0.00 0.00 62 1017.7
20220627195735 33 55 9.7 19.3 0.00 0.00 0.00 62 1017.7
20220627195636 33 51 6.4 17.7 0.00 0.00 0.00 62 1017.7
20220627195537 33 14 6.4 17.7 0.00 0.00 0.00 62 1017.7
20220627195434 33 59 6.4 19.3 0.00 0.00 0.00 62 1017.7
20220627195334 33 0 8.0 19.3 0.00 0.00 0.00 62 1017.8
20220627195238 33 44 9.7 19.3 0.00 0.00 0.00 62 1017.8
20220627195137 33 48 8.0 19.3 0.00 0.00 0.00 62 1017.7
20220627195035 33 83 8.0 19.3 0.00 0.00 0.00 62 1017.8
20220627194936 33 68 9.7 19.3 0.00 0.00 0.00 62 1017.8
20220627194834 33 96 8.0 19.3 0.00 0.00 0.00 63 1017.7
20220627194736 33 45 8.0 19.3 0.00 0.00 0.00 63 1017.8
20220627194634 33 82 9.7 19.3 0.00 0.00 0.00 63 1017.7
20220627194535 33 72 11.3 19.3 0.00 0.00 0.00 62 1017.8
20220627194447 33 113 9.7 19.3 0.00 0.00 0.00 62 1017.7
20220627194334 33 96 9.7 19.3 0.00 0.00 0.00 62 1017.8
20220627194235 33 49 11.3 19.3 0.00 0.00 0.00 62 1017.9
20220627194136 33 47 6.4 19.3 0.00 0.00 0.00 64 1017.9
20220627194035 33 47 6.4 19.3 0.00 0.00 0.00 64 1017.9
20220627193904 33 61 6.4 19.3 0.00 0.00 0.00 64 1017.9
20220627193804 33 76 8.0 19.3 0.00 0.00 0.00 64 1017.9
20220627193703 33 25 11.3 19.3 0.00 0.00 0.00 64 1017.9
20220627193603 32 92 9.7 19.3 0.00 0.00 0.00 64 1017.9
20220627193503 32 0 8.0 17.7 0.00 0.00 0.00 63 1017.9
20220627193404 32 23 6.4 17.7 0.00 0.00 0.00 63 1017.9
20220627193304 32 3 6.4 17.7 0.00 0.00 0.00 62 1017.9
20220627193204 32 49 8.0 17.7 0.00 0.00 0.00 63 1018.0
20220627193104 32 23 9.7 17.7 0.00 0.00 0.00 63 1017.9
20220627193004 32 8 9.7 17.7 0.00 0.00 0.00 62 1018.0
20220627192907 33 32 9.7 17.7 0.00 0.00 0.00 63 1018.0
20220627192803 32 10 8.0 17.7 0.00 0.00 0.00 62 1018.0
20220627192704 33 11 6.4 17.7 0.00 0.00 0.00 62 1017.9
20220627192603 33 23 9.7 17.7 0.00 0.00 0.00 61 1018.0
20220627192504 33 14 8.0 17.7 0.00 0.00 0.00 62 1018.0
20220627192404 33 13 8.0 17.7 0.00 0.00 0.00 62 1018.1
20220627192303 33 31 6.4 17.7 0.00 0.00 0.00 62 1018.1
20220627192204 33 24 6.4 17.7 0.00 0.00 0.00 62 1018.1
20220627192102 33 25 9.7 17.7 0.00 0.00 0.00 61 1018.0
20220627192002 33 61 6.4 17.7 0.00 0.00 0.00 61 1018.1
20220627191902 33 353 4.8 14.5 0.00 0.00 0.00 62 1018.1
20220627191800 33 96 6.4 14.5 0.00 0.00 0.00 61 1018.0
20220627191657 33 104 8.0 14.5 0.00 0.00 0.00 62 1018.1
20220627191557 33 4 6.4 14.5 0.00 0.00 0.00 63 1018.1
20220627191455 33 11 6.4 14.5 0.00 0.00 0.00 63 1018.1
20220627191353 33 35 6.4 14.5 0.00 0.00 0.00 63 1018.1
20220627191252 33 11 6.4 20.9 0.00 0.00 0.00 62 1018.1
20220627191151 33 66 6.4 20.9 0.00 0.00 0.00 62 1018.2
20220627191048 33 104 8.0 20.9 0.00 0.00 0.00 63 1018.1
20220627190950 33 6 6.4 20.9 0.00 0.00 0.00 62 1018.1
20220627190850 33 71 4.8 20.9 0.00 0.00 0.00 62 1018.1
20220627190745 33 31 6.4 20.9 0.00 0.00 0.00 62 1018.1
20220627190643 33 42 6.4 20.9 0.00 0.00 0.00 62 1018.1
20220627190541 33 44 9.7 20.9 0.00 0.00 0.00 61 1018.2
20220627190442 33 28 11.3 20.9 0.00 0.00 0.00 61 1018.2
20220627190342 33 37 11.3 20.9 0.00 0.00 0.00 60 1018.2
20220627190238 33 79 8.0 24.1 0.00 0.00 0.00 62 1018.3
20220627190138 33 62 8.0 24.1 0.00 0.00 0.00 62 1018.3
20220627190039 33 65 11.3 24.1 0.00 0.00 0.00 61 1018.2
20220627185938 33 109 12.9 24.1 0.00 0.00 0.00 60 1018.2
20220627185838 33 113 12.9 24.1 0.00 0.00 0.00 61 1018.2
20220627185738 33 93 8.0 24.1 0.00 0.00 0.00 61 1018.2
20220627185639 33 96 6.4 24.1 0.00 0.00 0.00 62 1018.3
20220627185539 33 17 11.3 24.1 0.00 0.00 0.00 61 1018.3
20220627185438 33 32 12.9 24.1 0.00 0.00 0.00 61 1018.2
20220627185343 33 32 9.7 24.1 0.00 0.00 0.00 61 1018.2
20220627185238 33 41 8.0 22.5 0.00 0.00 0.00 60 1018.2
20220627185138 33 37 9.7 22.5 0.00 0.00 0.00 59 1018.3
20220627185039 33 80 8.0 22.5 0.00 0.00 0.00 60 1018.3
20220627184939 33 25 4.8 22.5 0.00 0.00 0.00 60 1018.3
20220627184838 33 44 9.7 22.5 0.00 0.00 0.00 60 1018.3
20220627184738 33 8 9.7 22.5 0.00 0.00 0.00 59 1018.3
20220627184639 33 86 8.0 17.7 0.00 0.00 0.00 60 1018.3
20220627184538 34 0 6.4 17.7 0.00 0.00 0.00 61 1018.3
20220627184440 34 10 6.4 17.7 0.00 0.00 0.00 59 1018.3
20220627184339 34 54 9.7 17.7 0.00 0.00 0.00 60 1018.3
20220627184238 33 62 11.3 17.7 0.00 0.00 0.00 59 1018.3
20220627184138 33 90 8.0 17.7 0.00 0.00 0.00 59 1018.4
20220627184038 33 96 4.8 17.7 0.00 0.00 0.00 60 1018.3
20220627183939 33 4 6.4 17.7 0.00 0.00 0.00 59 1018.4
20220627183840 33 37 8.0 17.7 0.00 0.00 0.00 61 1018.5
20220627183737 33 6 11.3 17.7 0.00 0.00 0.00 61 1018.4
20220627183642 33 48 11.3 17.7 0.00 0.00 0.00 60 1018.4
20220627183538 33 31 8.0 17.7 0.00 0.00 0.00 61 1018.5
20220627183438 33 10 9.7 17.7 0.00 0.00 0.00 60 1018.5
20220627183337 34 55 6.4 20.9 0.00 0.00 0.00 60 1018.4
20220627183238 34 54 6.4 20.9 0.00 0.00 0.00 60 1018.4
20220627183138 34 100 9.7 20.9 0.00 0.00 0.00 60 1018.6
20220627183038 34 110 9.7 20.9 0.00 0.00 0.00 61 1018.5
20220627182938 33 107 8.0 20.9 0.00 0.00 0.00 62 1018.5
20220627182840 33 52 6.4 20.9 0.00 0.00 0.00 63 1018.6
20220627182737 33 48 9.7 20.9 0.00 0.00 0.00 63 1018.6
20220627182638 33 55 12.9 20.9 0.00 0.00 0.00 62 1018.6
20220627182539 33 97 11.3 20.9 0.00 0.00 0.00 63 1018.6
20220627182438 33 66 8.0 20.9 0.00 0.00 0.00 63 1018.6
20220627182337 33 37 6.4 19.3 0.00 0.00 0.00 64 1018.6
20220627182239 33 54 9.7 19.3 0.00 0.00 0.00 63 1018.6
20220627182137 33 69 9.7 19.3 0.00 0.00 0.00 62 1018.6
20220627182038 33 78 8.0 16.1 0.00 0.00 0.00 62 1018.7
20220627181942 33 86 8.0 19.3 0.00 0.00 0.00 62 1018.7
20220627181837 33 103 8.0 19.3 0.00 0.00 0.00 62 1018.7
20220627181738 33 78 8.0 19.3 0.00 0.00 0.00 63 1018.7
20220627181637 33 72 6.4 19.3 0.00 0.00 0.00 63 1018.7
20220627181538 33 106 8.0 20.9 0.00 0.00 0.00 63 1018.7
20220627181521 33 38 9.7 20.9 0.00 0.00 0.00 63 1018.7
20220627181458 33 52 8.0 20.9 0.00 0.00 0.00 62 1018.7
20220627181431 33 45 9.7 20.9 0.00 0.00 0.00 63 1018.8
20220627181409 33 54 9.7 20.9 0.00 0.00 0.00 63 1018.7
20220627181040 33 49 9.7 20.9 0.00 0.00 0.00 63 1018.7
20220627180938 33 93 11.3 20.9 0.00 0.00 0.00 63 1018.7
20220627180839 33 75 11.3 20.9 0.00 0.00 0.00 62 1018.8
20220627180737 33 72 8.0 20.9 0.00 0.00 0.00 61 1018.7
20220627180636 33 25 8.0 20.9 0.00 0.00 0.00 61 1018.7
20220627180539 33 16 8.0 20.9 0.00 0.00 0.00 61 1018.7
20220627180437 33 41 9.7 20.9 0.00 0.00 0.00 61 1018.7
20220627180337 33 71 8.0 20.9 0.00 0.00 0.00 61 1018.7
20220627180237 33 59 6.4 16.1 0.00 0.00 0.00 60 1018.7
20220627180138 33 355 8.0 16.1 0.00 0.00 0.00 59 1018.7
20220627180037 34 25 6.4 16.1 0.00 0.00 0.00 61 1018.8
20220627175937 33 99 6.4 16.1 0.00 0.00 0.00 60 1018.7
20220627175837 33 58 8.0 16.1 0.00 0.00 0.00 60 1018.7
20220627175740 33 82 9.7 16.1 0.00 0.00 0.00 60 1018.8
20220627175638 33 54 8.0 16.1 0.00 0.00 0.00 60 1018.7
20220627175536 33 76 6.4 16.1 0.00 0.00 0.00 60 1018.8
20220627175438 33 13 6.4 16.1 0.00 0.00 0.00 60 1018.8
20220627175336 33 8 8.0 16.1 0.00 0.00 0.00 59 1018.9
20220627175238 33 45 9.7 16.1 0.00 0.00 0.00 59 1018.9
20220627175137 33 78 8.0 16.1 0.00 0.00 0.00 60 1018.9
20220627175037 33 86 8.0 16.1 0.00 0.00 0.00 59 1018.9
20220627174939 33 347 8.0 16.1 0.00 0.00 0.00 59 1018.8
20220627174836 33 1 6.4 11.3 0.00 0.00 0.00 60 1018.9
20220627174738 33 86 6.4 11.3 0.00 0.00 0.00 60 1018.9
20220627174636 33 35 8.0 11.3 0.00 0.00 0.00 59 1018.8
20220627174536 33 107 6.4 9.7 0.00 0.00 0.00 59 1018.9
20220627174438 33 82 6.4 14.5 0.00 0.00 0.00 59 1018.9
20220627174337 33 35 6.4 14.5 0.00 0.00 0.00 60 1018.9
20220627174236 33 18 6.4 17.7 0.00 0.00 0.00 58 1019.0
20220627174138 33 52 6.4 17.7 0.00 0.00 0.00 58 1018.9
20220627174036 33 52 6.4 17.7 0.00 0.00 0.00 58 1018.9
20220627173937 33 52 6.4 17.7 0.00 0.00 0.00 58 1019.0
20220627173837 33 52 6.4 17.7 0.00 0.00 0.00 58 1019.0
20220627173736 33 52 6.4 17.7 0.00 0.00 0.00 58 1019.0
20220627173636 33 52 8.0 17.7 0.00 0.00 0.00 57 1018.9
20220627173537 34 80 9.7 17.7 0.00 0.00 0.00 58 1018.9
20220627173436 34 78 9.7 17.7 0.00 0.00 0.00 59 1018.9
20220627173336 34 51 9.7 17.7 0.00 0.00 0.00 59 1018.9
20220627173236 34 39 9.7 14.5 0.00 0.00 0.00 59 1019.0
20220627173136 34 23 8.0 14.5 0.00 0.00 0.00 59 1018.9
20220627173036 33 93 6.4 14.5 0.00 0.00 0.00 59 1018.9
20220627172937 33 123 8.0 14.5 0.00 0.00 0.00 59 1018.9
20220627172838 33 114 9.7 16.1 0.00 0.00 0.00 59 1018.9
20220627172740 33 120 8.0 16.1 0.00 0.00 0.00 58 1019.0
20220627172637 33 102 6.4 16.1 0.00 0.00 0.00 58 1019.0
20220627172536 33 51 4.8 16.1 0.00 0.00 0.00 58 1019.0
20220627172436 33 59 3.2 16.1 0.00 0.00 0.00 58 1019.0
20220627172337 33 59 4.8 16.1 0.00 0.00 0.00 58 1019.0
20220627172239 33 61 6.4 16.1 0.00 0.00 0.00 58 1019.1
20220627172136 33 113 8.0 16.1 0.00 0.00 0.00 57 1019.0
20220627172037 33 113 9.7 16.1 0.00 0.00 0.00 58 1019.0
20220627171936 33 52 9.7 16.1 0.00 0.00 0.00 58 1019.0
20220627171837 33 114 6.4 16.1 0.00 0.00 0.00 59 1019.1
20220627171736 33 42 3.2 16.1 0.00 0.00 0.00 59 1019.1
20220627171636 33 83 1.6 16.1 0.00 0.00 0.00 58 1019.1
20220627171536 33 83 3.2 16.1 0.00 0.00 0.00 57 1019.1
20220627171436 33 83 6.4 16.1 0.00 0.00 0.00 57 1019.1
20220627171336 33 102 6.4 16.1 0.00 0.00 0.00 57 1019.1
20220627171238 33 45 8.0 16.1 0.00 0.00 0.00 58 1019.1
20220627171135 33 28 6.4 17.7 0.00 0.00 0.00 58 1019.0
20220627171036 33 58 6.4 17.7 0.00 0.00 0.00 57 1019.0
20220627170937 33 61 8.0 17.7 0.00 0.00 0.00 58 1019.0
20220627170835 33 4 6.4 17.7 0.00 0.00 0.00 59 1019.0
20220627170735 33 83 3.2 17.7 0.00 0.00 0.00 58 1019.2
20220627170636 33 38 3.2 17.7 0.00 0.00 0.00 58 1019.1
20220627170535 33 38 6.4 17.7 0.00 0.00 0.00 57 1019.1
20220627170436 33 39 8.0 17.7 0.00 0.00 0.00 57 1019.2
20220627170335 33 87 8.0 17.7 0.00 0.00 0.00 58 1019.2
20220627170237 33 32 11.3 17.7 0.00 0.00 0.00 57 1019.2
20220627170135 33 106 9.7 17.7 0.00 0.00 0.00 57 1019.2
20220627170035 33 113 8.0 16.1 0.00 0.00 0.00 56 1019.2
20220627165937 33 149 6.4 14.5 0.00 0.00 0.00 56 1019.2
20220627165835 33 106 8.0 14.5 0.00 0.00 0.00 56 1019.2
20220627165736 33 79 8.0 14.5 0.00 0.00 0.00 56 1019.2
20220627165635 33 76 8.0 11.3 0.00 0.00 0.00 56 1019.3
20220627165535 33 3 6.4 11.3 0.00 0.00 0.00 54 1019.2
20220627165436 33 8 4.8 11.3 0.00 0.00 0.00 53 1019.2
20220627165336 33 317 6.4 11.3 0.00 0.00 0.00 53 1019.2
20220627165238 33 326 8.0 11.3 0.00 0.00 0.00 53 1019.2
20220627165137 33 330 6.4 11.3 0.00 0.00 0.00 53 1019.2
20220627165035 33 320 4.8 11.3 0.00 0.00 0.00 53 1019.2
20220627164935 33 56 3.2 11.3 0.00 0.00 0.00 54 1019.2
20220627164835 33 73 4.8 11.3 0.00 0.00 0.00 53 1019.2
20220627164735 33 58 4.8 11.3 0.00 0.00 0.00 54 1019.3
20220627164635 33 52 6.4 11.3 0.00 0.00 0.00 54 1019.2
20220627164539 33 16 6.4 11.3 0.00 0.00 0.00 54 1019.2
20220627164437 33 17 4.8 11.3 0.00 0.00 0.00 54 1019.2
20220627164336 33 30 6.4 11.3 0.00 0.00 0.00 54 1019.2
20220627164240 33 10 8.0 11.3 0.00 0.00 0.00 55 1019.3
20220627164136 33 3 8.0 11.3 0.00 0.00 0.00 55 1019.3
20220627164035 33 7 6.4 11.3 0.00 0.00 0.00 56 1019.3
20220627163935 33 0 6.4 11.3 0.00 0.00 0.00 56 1019.3
20220627163836 33 61 6.4 11.3 0.00 0.00 0.00 55 1019.3
20220627163738 33 45 6.4 11.3 0.00 0.00 0.00 56 1019.3
20220627163635 33 4 6.4 11.3 0.00 0.00 0.00 54 1019.3
20220627163538 33 11 4.8 11.3 0.00 0.00 0.00 55 1019.3
20220627163435 33 94 3.2 11.3 0.00 0.00 0.00 54 1019.3
20220627163334 33 39 3.2 11.3 0.00 0.00 0.00 54 1019.3
20220627163234 33 39 4.8 11.3 0.00 0.00 0.00 55 1019.3
20220627163134 33 39 4.8 14.5 0.00 0.00 0.00 55 1019.3
20220627163035 33 354 4.8 14.5 0.00 0.00 0.00 55 1019.3
20220627162933 32 338 4.8 14.5 0.00 0.00 0.00 56 1019.3
20220627162832 32 357 4.8 14.5 0.00 0.00 0.00 55 1019.3
20220627162733 33 0 6.4 14.5 0.00 0.00 0.00 56 1019.3
20220627162628 33 0 6.4 14.5 0.00 0.00 0.00 56 1019.3
20220627162527 32 0 6.4 14.5 0.00 0.00 0.00 57 1019.2
20220627162426 32 0 6.4 14.5 0.00 0.00 0.00 57 1019.3
20220627162323 32 17 8.0 14.5 0.00 0.00 0.00 57 1019.2
20220627162223 33 17 6.4 14.5 0.00 0.00 0.00 56 1019.2
20220627162121 32 58 4.8 9.7 0.00 0.00 0.00 57 1019.3
20220627162019 32 59 3.2 9.7 0.00 0.00 0.00 57 1019.4
20220627161917 32 68 4.8 9.7 0.00 0.00 0.00 57 1019.4
20220627161818 33 66 6.4 9.7 0.00 0.00 0.00 57 1019.3
20220627161718 33 94 6.4 9.7 0.00 0.00 0.00 57 1019.3
20220627161612 32 78 3.2 9.7 0.00 0.00 0.00 59 1019.3
20220627161508 32 299 4.8 9.7 0.00 0.00 0.00 60 1019.4
20220627161406 32 298 4.8 9.7 0.00 0.00 0.00 59 1019.3
20220627161305 32 8 3.2 9.7 0.00 0.00 0.00 58 1019.3
20220627161204 32 6 3.2 9.7 0.00 0.00 0.00 60 1019.3
20220627161103 32 3 4.8 9.7 0.00 0.00 0.00 60 1019.3
20220627161004 32 0 4.8 9.7 0.00 0.00 0.00 61 1019.3
20220627160904 32 0 4.8 11.3 0.00 0.00 0.00 60 1019.3
20220627160805 32 0 3.2 11.3 0.00 0.00 0.00 60 1019.3
20220627160705 32 343 3.2 11.3 0.00 0.00 0.00 60 1019.3
20220627160603 32 343 1.6 11.3 0.00 0.00 0.00 60 1019.3
20220627160502 32 340 3.2 11.3 0.00 0.00 0.00 59 1019.3
20220627160400 32 337 4.8 11.3 0.00 0.00 0.00 60 1019.3
20220627160259 32 0 4.8 11.3 0.00 0.00 0.00 61 1019.3
20220627160158 32 7 4.8 11.3 0.00 0.00 0.00 59 1019.3
20220627160057 32 6 6.4 11.3 0.00 0.00 0.00 61 1019.3
20220627155954 32 3 6.4 11.3 0.00 0.00 0.00 59 1019.2
20220627155854 32 56 6.4 11.3 0.00 0.00 0.00 59 1019.3
20220627155752 32 30 8.0 11.3 0.00 0.00 0.00 59 1019.2
20220627155650 32 44 6.4 11.3 0.00 0.00 0.00 60 1019.3
20220627155550 32 11 6.4 11.3 0.00 0.00 0.00 58 1019.3
20220627155447 32 21 6.4 11.3 0.00 0.00 0.00 60 1019.3
20220627155345 32 16 6.4 11.3 0.00 0.00 0.00 60 1019.3
20220627155248 32 13 8.0 11.3 0.00 0.00 0.00 61 1019.3
20220627155141 32 48 8.0 11.3 0.00 0.00 0.00 61 1019.3
20220627155041 32 8 6.4 11.3 0.00 0.00 0.00 61 1019.3
20220627154939 32 18 6.4 11.3 0.00 0.00 0.00 61 1019.3
20220627154839 32 0 6.4 11.3 0.00 0.00 0.00 62 1019.4
20220627154737 32 20 4.8 11.3 0.00 0.00 0.00 62 1019.3
20220627154635 32 0 3.2 14.5 0.00 0.00 0.00 63 1019.4
20220627154535 31 0 4.8 14.5 0.00 0.00 0.00 65 1019.3
20220627154435 31 0 4.8 14.5 0.00 0.00 0.00 65 1019.4
20220627154334 31 341 4.8 14.5 0.00 0.00 0.00 65 1019.4
20220627154235 31 0 4.8 14.5 0.00 0.00 0.00 65 1019.3
20220627154134 31 0 4.8 14.5 0.00 0.00 0.00 66 1019.4
20220627154035 32 0 4.8 16.1 0.00 0.00 0.00 66 1019.4
20220627153937 31 0 4.8 16.1 0.00 0.00 0.00 66 1019.4
20220627153835 31 0 6.4 16.1 0.00 0.00 0.00 65 1019.4
20220627153734 31 0 8.0 16.1 0.00 0.00 0.00 65 1019.4
20220627153635 31 0 6.4 16.1 0.00 0.00 0.00 65 1019.4
20220627153534 31 348 6.4 16.1 0.00 0.00 0.00 66 1019.4
20220627153436 31 0 8.0 16.1 0.00 0.00 0.00 66 1019.4
20220627153336 31 0 8.0 16.1 0.00 0.00 0.00 66 1019.5
20220627153238 31 347 9.7 16.1 0.00 0.00 0.00 65 1019.4
20220627153135 31 0 9.7 16.1 0.00 0.00 0.00 66 1019.6
20220627153036 31 0 6.4 14.5 0.00 0.00 0.00 67 1019.4
20220627152933 31 0 6.4 14.5 0.00 0.00 0.00 67 1019.5
20220627152834 31 0 8.0 14.5 0.00 0.00 0.00 67 1019.4
20220627152733 31 1 6.4 19.3 0.00 0.00 0.00 68 1019.5
20220627152633 31 0 3.2 19.3 0.00 0.00 0.00 68 1019.4
20220627152537 31 20 4.8 19.3 0.00 0.00 0.00 67 1019.5
20220627152434 31 13 6.4 19.3 0.00 0.00 0.00 67 1019.4
20220627152334 31 13 6.4 19.3 0.00 0.00 0.00 66 1019.4
20220627152235 31 343 6.4 19.3 0.00 0.00 0.00 67 1019.4
20220627152134 31 0 8.0 19.3 0.00 0.00 0.00 66 1019.4
20220627152033 31 0 9.7 19.3 0.00 0.00 0.00 65 1019.4
20220627151934 31 0 9.7 19.3 0.00 0.00 0.00 65 1019.4
20220627151835 31 14 9.7 19.3 0.00 0.00 0.00 65 1019.4
20220627151733 31 0 9.7 19.3 0.00 0.00 0.00 65 1019.4
20220627151633 31 0 11.3 19.3 0.00 0.00 0.00 66 1019.4
20220627151534 31 0 8.0 19.3 0.00 0.00 0.00 68 1019.5
20220627151434 31 0 8.0 14.5 0.00 0.00 0.00 68 1019.5
20220627151333 31 340 8.0 17.7 0.00 0.00 0.00 68 1019.6
20220627151233 31 0 6.4 17.7 0.00 0.00 0.00 69 1019.6
20220627151134 31 353 6.4 17.7 0.00 0.00 0.00 70 1019.5
20220627151033 31 355 6.4 17.7 0.00 0.00 0.00 71 1019.5
20220627150934 31 353 4.8 17.7 0.00 0.00 0.00 71 1019.5
20220627150835 30 348 4.8 17.7 0.00 0.00 0.00 71 1019.5
20220627150733 30 334 6.4 17.7 0.00 0.00 0.00 71 1019.5
20220627150632 30 329 6.4 17.7 0.00 0.00 0.00 70 1019.5
20220627150533 30 0 9.7 17.7 0.00 0.00 0.00 70 1019.5
20220627150433 31 338 8.0 17.7 0.00 0.00 0.00 71 1019.4
20220627150334 31 355 8.0 16.1 0.00 0.00 0.00 71 1019.5
20220627150232 31 329 6.4 16.1 0.00 0.00 0.00 71 1019.4
20220627150132 31 334 4.8 16.1 0.00 0.00 0.00 71 1019.4
20220627150033 31 353 3.2 16.1 0.00 0.00 0.00 71 1019.4
20220627145932 31 340 4.8 16.1 0.00 0.00 0.00 71 1019.5
20220627145833 31 348 8.0 16.1 0.00 0.00 0.00 71 1019.5
20220627145734 31 333 6.4 16.1 0.00 0.00 0.00 71 1019.5
20220627145633 31 351 8.0 16.1 0.00 0.00 0.00 71 1019.6
20220627145532 31 347 9.7 16.1 0.00 0.00 0.00 71 1019.6
20220627145435 31 344 6.4 11.3 0.00 0.00 0.00 72 1019.6
20220627145336 30 0 6.4 11.3 0.00 0.00 0.00 72 1019.6
20220627145233 30 330 6.4 11.3 0.00 0.00 0.00 73 1019.7
20220627145132 30 24 4.8 9.7 0.00 0.00 0.00 73 1019.7
20220627145035 30 347 3.2 9.7 0.00 0.00 0.00 74 1019.7
20220627144932 30 334 3.2 9.7 0.00 0.00 0.00 74 1019.7
20220627144832 30 336 4.8 9.7 0.00 0.00 0.00 74 1019.7
20220627144737 30 336 6.4 9.7 0.00 0.00 0.00 74 1019.8
20220627144632 30 0 4.8 8.0 0.00 0.00 0.00 75 1019.8
20220627144532 30 313 4.8 8.0 0.00 0.00 0.00 75 1019.7
20220627144432 30 320 3.2 6.4 0.00 0.00 0.00 75 1019.7
20220627144333 30 320 0.0 6.4 0.00 0.00 0.00 76 1019.7
20220627144232 30 320 0.0 6.4 0.00 0.00 0.00 76 1019.7
20220627144132 30 351 0.0 6.4 0.00 0.00 0.00 76 1019.6
20220627144032 30 351 0.0 6.4 0.00 0.00 0.00 76 1019.7
20220627143932 30 347 0.0 6.4 0.00 0.00 0.00 77 1019.6
20220627143834 30 336 0.0 6.4 0.00 0.00 0.00 76 1019.7
20220627143733 30 336 1.6 6.4 0.00 0.00 0.00 76 1019.7
20220627143633 30 336 3.2 6.4 0.00 0.00 0.00 76 1019.7
20220627143535 30 336 3.2 6.4 0.00 0.00 0.00 77 1019.8
20220627143432 30 336 3.2 6.4 0.00 0.00 0.00 78 1019.8
20220627143334 30 337 3.2 6.4 0.00 0.00 0.00 77 1019.7
20220627143234 30 344 3.2 6.4 0.00 0.00 0.00 77 1019.8
20220627143133 29 344 3.2 6.4 0.00 0.00 0.00 78 1019.8
20220627143033 29 344 3.2 6.4 0.00 0.00 0.00 78 1019.7
20220627142932 29 345 3.2 6.4 0.00 0.00 0.00 77 1019.7
20220627142832 29 316 3.2 6.4 0.00 0.00 0.00 77 1019.7
20220627142732 29 316 3.2 6.4 0.00 0.00 0.00 77 1019.7
20220627142632 29 316 3.2 6.4 0.00 0.00 0.00 77 1019.7
20220627142532 29 316 4.8 6.4 0.00 0.00 0.00 78 1019.7
20220627142432 29 316 4.8 6.4 0.00 0.00 0.00 77 1019.7
20220627142333 29 316 3.2 6.4 0.00 0.00 0.00 78 1019.7
20220627142231 29 316 3.2 8.0 0.00 0.00 0.00 78 1019.7
20220627142132 29 314 1.6 8.0 0.00 0.00 0.00 78 1019.7
20220627142032 29 316 3.2 8.0 0.00 0.00 0.00 78 1019.7
20220627141936 29 313 4.8 8.0 0.00 0.00 0.00 78 1019.7
20220627141832 29 313 4.8 8.0 0.00 0.00 0.00 78 1019.8
20220627141732 29 313 3.2 8.0 0.00 0.00 0.00 78 1019.8
20220627141632 29 320 1.6 8.0 0.00 0.00 0.00 78 1019.8
20220627141535 29 319 3.2 8.0 0.00 0.00 0.00 78 1019.8
20220627141432 29 320 6.4 8.0 0.00 0.00 0.00 78 1019.8
20220627141332 29 309 4.8 8.0 0.00 0.00 0.00 78 1019.8
20220627141233 29 323 4.8 6.4 0.00 0.00 0.00 77 1019.8
20220627141132 29 323 4.8 6.4 0.00 0.00 0.00 78 1019.8
20220627141032 29 326 3.2 6.4 0.00 0.00 0.00 78 1019.8
20220627140931 29 331 3.2 6.4 0.00 0.00 0.00 78 1019.8
20220627140834 29 331 3.2 6.4 0.00 0.00 0.00 77 1019.9
20220627140733 29 331 3.2 6.4 0.00 0.00 0.00 78 1019.8
20220627140632 29 331 3.2 6.4 0.00 0.00 0.00 78 1019.8
20220627140533 29 331 4.8 6.4 0.00 0.00 0.00 78 1019.8
20220627140431 29 330 3.2 6.4 0.00 0.00 0.00 78 1019.7
20220627140331 29 307 3.2 6.4 0.00 0.00 0.00 78 1019.8
20220627140232 29 307 3.2 6.4 0.00 0.00 0.00 79 1019.7
20220627140135 29 307 3.2 6.4 0.00 0.00 0.00 80 1019.7
20220627140031 28 307 4.8 6.4 0.00 0.00 0.00 80 1019.6
20220627135931 28 307 4.8 6.4 0.00 0.00 0.00 80 1019.6
20220627135836 28 309 3.2 8.0 0.00 0.00 0.00 80 1019.5
20220627135731 28 309 1.6 8.0 0.00 0.00 0.00 80 1019.4
20220627135632 28 309 3.2 8.0 0.00 0.00 0.00 80 1019.5
20220627135534 28 309 1.6 8.0 0.00 0.00 0.00 80 1019.4
20220627135432 28 309 1.6 8.0 0.00 0.00 0.00 80 1019.4
20220627135331 28 309 1.6 8.0 0.00 0.00 0.00 80 1019.5
20220627135231 28 309 3.2 8.0 0.00 0.00 0.00 80 1019.5
20220627135133 28 309 3.2 8.0 0.00 0.00 0.00 80 1019.5
20220627135032 28 309 4.8 9.7 0.00 0.00 0.00 80 1019.6
20220627134931 28 313 4.8 11.3 0.00 0.00 0.00 80 1019.5
20220627134836 28 316 3.2 11.3 0.00 0.00 0.00 80 1019.4
20220627134731 28 316 3.2 11.3 0.00 0.00 0.00 80 1019.4
20220627134632 28 312 4.8 11.3 0.00 0.00 0.00 80 1019.4
20220627134533 28 300 4.8 11.3 0.00 0.00 0.00 80 1019.4
20220627134432 28 285 4.8 11.3 0.00 0.00 0.00 80 1019.4
20220627134331 28 278 6.4 11.3 0.00 0.00 0.00 80 1019.3
20220627134231 28 274 6.4 11.3 0.00 0.00 0.00 80 1019.3
20220627134133 28 307 8.0 11.3 0.00 0.00 0.00 80 1019.3
20220627134034 28 300 8.0 11.3 0.00 0.00 0.00 80 1019.3
20220627133933 28 326 6.4 11.3 0.00 0.00 0.00 81 1019.5
20220627133834 28 312 4.8 11.3 0.00 0.00 0.00 81 1019.4
20220627133732 28 324 4.8 11.3 0.00 0.00 0.00 82 1019.4
20220627133630 28 324 6.4 11.3 0.00 0.00 0.00 82 1019.5
20220627133530 28 321 6.4 11.3 0.00 0.00 0.00 83 1019.5
20220627133431 28 319 6.4 11.3 0.00 0.00 0.00 83 1019.4
20220627133332 28 326 6.4 11.3 0.00 0.00 0.00 83 1019.3
20220627133230 28 326 8.0 11.3 0.00 0.00 0.00 83 1019.3
20220627133131 28 298 6.4 9.7 0.00 0.00 0.00 84 1019.3
20220627133031 28 300 4.8 9.7 0.00 0.00 0.00 84 1019.4
20220627132930 28 303 6.4 11.3 0.00 0.00 0.00 84 1019.4
20220627132830 28 302 6.4 11.3 0.00 0.00 0.00 84 1019.4
20220627132731 28 299 6.4 11.3 0.00 0.00 0.00 84 1019.3
20220627132632 28 317 4.8 11.3 0.00 0.00 0.00 84 1019.4
20220627132531 28 317 4.8 11.3 0.00 0.00 0.00 85 1019.4
20220627132431 28 312 6.4 11.3 0.00 0.00 0.00 84 1019.4
20220627132331 28 306 6.4 11.3 0.00 0.00 0.00 84 1019.3
20220627132235 28 310 6.4 11.3 0.00 0.00 0.00 84 1019.3
20220627132130 28 307 8.0 11.3 0.00 0.00 0.00 84 1019.2
20220627132032 28 307 8.0 11.3 0.00 0.00 0.00 85 1019.3
20220627131931 28 306 6.4 11.3 0.00 0.00 0.00 85 1019.2
20220627131831 28 307 6.4 9.7 0.00 0.00 0.00 85 1019.2
20220627131732 28 309 4.8 9.7 0.00 0.00 0.00 85 1019.1
20220627131633 28 309 4.8 9.7 0.00 0.00 0.00 84 1019.2
20220627131531 28 309 3.2 9.7 0.00 0.00 0.00 84 1019.1
20220627131431 28 309 4.8 9.7 0.00 0.00 0.00 85 1019.1
20220627131332 28 310 6.4 9.7 0.00 0.00 0.00 84 1019.2
20220627131230 28 305 4.8 9.7 0.00 0.00 0.00 84 1019.2
20220627131131 28 305 6.4 9.7 0.00 0.00 0.00 84 1019.1
20220627131031 28 303 6.4 9.7 0.00 0.00 0.00 84 1019.2
20220627130931 28 299 4.8 9.7 0.00 0.00 0.00 84 1019.3
20220627130830 28 326 4.8 8.0 0.00 0.00 0.00 83 1019.2
20220627130730 28 326 3.2 8.0 0.00 0.00 0.00 84 1019.2
20220627130633 28 340 0.0 4.8 0.00 0.00 0.00 84 1019.3
20220627130529 28 354 0.0 4.8 0.00 0.00 0.00 84 1019.3
20220627130430 28 354 0.0 4.8 0.00 0.00 0.00 84 1019.4
20220627130330 28 0 0.0 4.8 0.00 0.00 0.00 84 1019.3
20220627130231 28 0 1.6 4.8 0.00 0.00 0.00 84 1019.4
20220627130130 28 0 1.6 4.8 0.00 0.00 0.00 84 1019.3
20220627130030 28 0 3.2 4.8 0.00 0.00 0.00 84 1019.4
20220627125932 28 17 3.2 4.8 0.00 0.00 0.00 84 1019.4
20220627125831 28 17 3.2 4.8 0.00 0.00 0.00 84 1019.4
20220627125730 28 17 3.2 4.8 0.00 0.00 0.00 84 1019.4
20220627125632 28 17 3.2 4.8 0.00 0.00 0.00 85 1019.4
20220627125532 27 18 1.6 4.8 0.00 0.00 0.00 85 1019.4
20220627125430 27 27 1.6 4.8 0.00 0.00 0.00 85 1019.3
20220627125331 27 27 3.2 4.8 0.00 0.00 0.00 85 1019.3
20220627125231 27 27 3.2 4.8 0.00 0.00 0.00 85 1019.5
20220627125132 27 27 3.2 4.8 0.00 0.00 0.00 86 1019.4
20220627125030 27 27 1.6 4.8 0.00 0.00 0.00 86 1019.4
20220627124931 27 27 3.2 4.8 0.00 0.00 0.00 86 1019.4
20220627124833 27 27 3.2 4.8 0.00 0.00 0.00 86 1019.4
20220627124729 27 27 3.2 4.8 0.00 0.00 0.00 86 1019.4
20220627124630 27 27 3.2 4.8 0.00 0.00 0.00 86 1019.4
20220627124531 27 27 3.2 4.8 0.00 0.00 0.00 86 1019.4
20220627124432 27 27 3.2 4.8 0.00 0.00 0.00 86 1019.4
20220627124331 27 27 3.2 4.8 0.00 0.00 0.00 86 1019.4
20220627124231 27 27 1.6 4.8 0.00 0.00 0.00 87 1019.4
20220627124129 27 28 1.6 4.8 0.00 0.00 0.00 87 1019.4
20220627124030 27 28 1.6 4.8 0.00 0.00 0.00 87 1019.4
20220627123929 27 27 3.2 4.8 0.00 0.00 0.00 87 1019.4
20220627123829 27 27 3.2 4.8 0.00 0.00 0.00 87 1019.4
20220627123732 27 27 1.6 4.8 0.00 0.00 0.00 87 1019.4
20220627123629 27 27 1.6 4.8 0.00 0.00 0.00 87 1019.4
20220627123531 27 27 0.0 4.8 0.00 0.00 0.00 87 1019.4
20220627123430 27 27 0.0 4.8 0.00 0.00 0.00 88 1019.4
20220627123329 27 27 0.0 4.8 0.00 0.00 0.00 88 1019.4
20220627123229 27 27 0.0 4.8 0.00 0.00 0.00 88 1019.4
20220627123133 27 28 1.6 4.8 0.00 0.00 0.00 88 1019.3
20220627123031 26 27 1.6 4.8 0.00 0.00 0.00 88 1019.4
20220627122930 26 27 1.6 4.8 0.00 0.00 0.00 88 1019.4
20220627122830 26 27 0.0 4.8 0.00 0.00 0.00 88 1019.4
20220627122729 26 28 1.6 4.8 0.00 0.00 0.00 88 1019.3
20220627122629 26 28 3.2 4.8 0.00 0.00 0.00 88 1019.4
20220627122530 26 27 3.2 8.0 0.00 0.00 0.00 88 1019.3
20220627122429 26 27 3.2 8.0 0.00 0.00 0.00 88 1019.3
20220627122329 26 27 3.2 8.0 0.00 0.00 0.00 88 1019.4
20220627122230 26 27 3.2 8.0 0.00 0.00 0.00 88 1019.3
20220627122134 26 27 3.2 8.0 0.00 0.00 0.00 88 1019.2
20220627122029 26 27 3.2 8.0 0.00 0.00 0.00 88 1019.3
20220627121929 26 27 3.2 8.0 0.00 0.00 0.00 88 1019.3
20220627121832 26 27 3.2 8.0 0.00 0.00 0.00 87 1019.2
20220627121732 26 27 3.2 8.0 0.00 0.00 0.00 87 1019.3
20220627121629 26 27 3.2 8.0 0.00 0.00 0.00 87 1019.3
20220627121529 27 27 3.2 6.4 0.00 0.00 0.00 87 1019.3
20220627121434 27 23 3.2 6.4 0.00 0.00 0.00 87 1019.3
20220627121331 27 23 3.2 6.4 0.00 0.00 0.00 87 1019.3
20220627121229 27 0 3.2 6.4 0.00 0.00 0.00 87 1019.2
20220627121130 27 0 3.2 6.4 0.00 0.00 0.00 87 1019.2
20220627121029 27 0 4.8 6.4 0.00 0.00 0.00 87 1019.1
20220627120929 27 278 3.2 4.8 0.00 0.00 0.00 87 1019.1
20220627120830 27 272 3.2 4.8 0.00 0.00 0.00 87 1019.0
20220627120731 27 269 3.2 4.8 0.00 0.00 0.00 87 1019.0
20220627120629 27 266 1.6 4.8 0.00 0.00 0.00 87 1018.9
20220627120528 27 262 1.6 4.8 0.00 0.00 0.00 87 1018.9
20220627120432 27 262 1.6 4.8 0.00 0.00 0.00 87 1018.9
20220627120330 27 262 3.2 4.8 0.00 0.00 0.00 87 1018.9
20220627120231 27 259 3.2 4.8 0.00 0.00 0.00 86 1018.9
20220627120131 27 259 3.2 4.8 0.00 0.00 0.00 86 1018.8
20220627120029 27 259 3.2 4.8 0.00 0.00 0.00 86 1018.8
20220627115928 27 259 1.6 4.8 0.00 0.00 0.00 86 1018.8
20220627115827 27 259 1.6 4.8 0.00 0.00 0.00 86 1018.8
20220627115730 27 259 1.6 4.8 0.00 0.00 0.00 86 1018.8
20220627115631 27 259 1.6 4.8 0.00 0.00 0.00 86 1018.8
20220627115528 27 259 0.0 4.8 0.00 0.00 0.00 86 1018.8
20220627115428 27 259 0.0 4.8 0.00 0.00 0.00 86 1018.8
20220627115329 27 259 0.0 4.8 0.00 0.00 0.00 86 1018.7
20220627115228 27 259 1.6 4.8 0.00 0.00 0.00 86 1018.7
20220627115128 27 259 1.6 4.8 0.00 0.00 0.00 86 1018.7
20220627115028 27 259 1.6 4.8 0.00 0.00 0.00 86 1018.7
20220627114929 27 259 1.6 6.4 0.00 0.00 0.00 86 1018.7
20220627114829 27 259 1.6 6.4 0.00 0.00 0.00 86 1018.6
20220627114728 27 259 1.6 6.4 0.00 0.00 0.00 86 1018.6
20220627114630 27 259 3.2 6.4 0.00 0.00 0.00 86 1018.6
20220627114529 27 259 1.6 6.4 0.00 0.00 0.00 86 1018.6
20220627114428 27 259 3.2 6.4 0.00 0.00 0.00 86 1018.6
20220627114329 27 259 3.2 6.4 0.00 0.00 0.00 86 1018.6
20220627114229 27 259 3.2 6.4 0.00 0.00 0.00 86 1018.6
20220627114129 27 259 3.2 6.4 0.00 0.00 0.00 86 1018.6
20220627114028 27 259 3.2 6.4 0.00 0.00 0.00 86 1018.7
20220627113932 27 259 3.2 6.4 0.00 0.00 0.00 86 1018.7
20220627113828 27 259 3.2 6.4 0.00 0.00 0.00 86 1018.6
20220627113728 27 259 3.2 6.4 0.00 0.00 0.00 86 1018.6
20220627113629 27 259 3.2 6.4 0.00 0.00 0.00 86 1018.6
20220627113528 27 259 4.8 6.4 0.00 0.00 0.00 86 1018.5
20220627113429 27 258 4.8 6.4 0.00 0.00 0.00 86 1018.6
20220627113329 27 255 4.8 6.4 0.00 0.00 0.00 86 1018.6
20220627113227 27 255 4.8 6.4 0.00 0.00 0.00 86 1018.5
20220627113128 27 250 3.2 4.8 0.00 0.00 0.00 86 1018.6
20220627113029 27 250 3.2 4.8 0.00 0.00 0.00 86 1018.6
20220627112929 27 250 0.0 3.2 0.00 0.00 0.00 86 1018.6
20220627112832 27 250 0.0 3.2 0.00 0.00 0.00 86 1018.6
20220627112729 27 250 0.0 3.2 0.00 0.00 0.00 86 1018.6
20220627112630 27 250 0.0 3.2 0.00 0.00 0.00 86 1018.6
20220627112529 27 250 0.0 3.2 0.00 0.00 0.00 86 1018.5
20220627112427 27 250 0.0 3.2 0.00 0.00 0.00 86 1018.6
20220627112327 27 250 0.0 3.2 0.00 0.00 0.00 86 1018.5
20220627112230 27 250 0.0 3.2 0.00 0.00 0.00 86 1018.4
20220627112127 27 250 1.6 3.2 0.00 0.00 0.00 86 1018.5
20220627112028 27 250 1.6 3.2 0.00 0.00 0.00 86 1018.6
20220627111928 27 250 1.6 3.2 0.00 0.00 0.00 86 1018.6
20220627111828 27 250 1.6 3.2 0.00 0.00 0.00 86 1018.5
20220627111727 27 250 1.6 3.2 0.00 0.00 0.00 86 1018.5
20220627111628 27 250 1.6 3.2 0.00 0.00 0.00 86 1018.5
20220627111528 27 250 3.2 3.2 0.00 0.00 0.00 86 1018.5
20220627111427 27 250 3.2 4.8 0.00 0.00 0.00 86 1018.5
20220627111326 27 250 1.6 4.8 0.00 0.00 0.00 86 1018.5
20220627111228 27 250 1.6 4.8 0.00 0.00 0.00 86 1018.5
20220627111128 27 250 3.2 4.8 0.00 0.00 0.00 86 1018.5
20220627111027 27 250 3.2 4.8 0.00 0.00 0.00 86 1018.4
20220627110927 27 250 1.6 4.8 0.00 0.00 0.00 86 1018.5
20220627110827 27 250 3.2 4.8 0.00 0.00 0.00 86 1018.4
20220627110727 27 250 3.2 4.8 0.00 0.00 0.00 86 1018.4
20220627110629 27 250 3.2 4.8 0.00 0.00 0.00 86 1018.4
20220627110528 27 250 3.2 4.8 0.00 0.00 0.00 86 1018.4
20220627110427 27 250 3.2 4.8 0.00 0.00 0.00 86 1018.5
20220627110327 27 250 3.2 4.8 0.00 0.00 0.00 85 1018.5
20220627110228 27 250 3.2 4.8 0.00 0.00 0.00 85 1018.5
20220627110129 27 250 3.2 4.8 0.00 0.00 0.00 85 1018.4
20220627110027 27 250 3.2 4.8 0.00 0.00 0.00 85 1018.3
20220627105928 27 250 3.2 4.8 0.00 0.00 0.00 85 1018.4
20220627105831 27 250 1.6 4.8 0.00 0.00 0.00 85 1018.3
20220627105727 27 250 1.6 4.8 0.00 0.00 0.00 85 1018.3
20220627105627 27 250 3.2 4.8 0.00 0.00 0.00 85 1018.3
20220627105531 27 250 3.2 4.8 0.00 0.00 0.00 85 1018.3
20220627105428 27 250 1.6 4.8 0.00 0.00 0.00 85 1018.4
20220627105327 27 250 3.2 4.8 0.00 0.00 0.00 85 1018.4
20220627105230 27 250 3.2 4.8 0.00 0.00 0.00 85 1018.3
20220627105128 27 250 3.2 4.8 0.00 0.00 0.00 85 1018.4
20220627105027 27 250 3.2 4.8 0.00 0.00 0.00 85 1018.5
20220627104927 27 250 3.2 4.8 0.00 0.00 0.00 85 1018.4
20220627104828 27 250 1.6 4.8 0.00 0.00 0.00 85 1018.5
20220627104728 27 250 1.6 4.8 0.00 0.00 0.00 85 1018.5
20220627104630 27 250 1.6 4.8 0.00 0.00 0.00 85 1018.4
20220627104527 27 250 1.6 4.8 0.00 0.00 0.00 85 1018.5
20220627104428 27 250 3.2 4.8 0.00 0.00 0.00 85 1018.5
20220627104327 27 250 3.2 4.8 0.00 0.00 0.00 85 1018.5
20220627104229 27 250 3.2 4.8 0.00 0.00 0.00 85 1018.5
20220627104129 27 250 1.6 4.8 0.00 0.00 0.00 85 1018.5
20220627104028 27 250 3.2 6.4 0.00 0.00 0.00 85 1018.6
20220627103927 27 250 1.6 6.4 0.00 0.00 0.00 84 1018.5
20220627103827 27 250 1.6 6.4 0.00 0.00 0.00 84 1018.5
20220627103729 27 248 3.2 6.4 0.00 0.00 0.00 84 1018.5
20220627103628 27 248 3.2 6.4 0.00 0.00 0.00 84 1018.5
20220627103504 27 248 3.2 6.4 0.00 0.00 0.00 84 1018.4
20220627103407 27 248 3.2 6.4 0.00 0.00 0.00 84 1018.4
20220627103246 27 248 3.2 6.4 0.00 0.00 0.00 84 1018.3
20220627103142 27 248 3.2 6.4 0.00 0.00 0.00 84 1018.4
20220627103039 27 243 3.2 6.4 0.00 0.00 0.00 84 1018.4
20220627102940 27 243 4.8 6.4 0.00 0.00 0.00 84 1018.3
20220627102836 27 243 3.2 6.4 0.00 0.00 0.00 84 1018.4
20220627102735 27 243 3.2 6.4 0.00 0.00 0.00 84 1018.4
20220627102635 27 243 3.2 6.4 0.00 0.00 0.00 84 1018.3
20220627102533 27 243 3.2 6.4 0.00 0.00 0.00 84 1018.4
20220627102434 27 243 3.2 6.4 0.00 0.00 0.00 84 1018.4
20220627102334 27 243 3.2 6.4 0.00 0.00 0.00 84 1018.4
20220627102235 27 243 3.2 6.4 0.00 0.00 0.00 84 1018.4
20220627102134 27 238 3.2 4.8 0.00 0.00 0.00 84 1018.4
20220627102034 27 238 0.0 3.2 0.00 0.00 0.00 84 1018.4
20220627101936 27 238 0.0 0.0 0.00 0.00 0.00 84 1018.5
20220627101835 27 238 0.0 0.0 0.00 0.00 0.00 84 1018.4
20220627101735 27 238 0.0 0.0 0.00 0.00 0.00 84 1018.4
20220627101634 27 238 0.0 0.0 0.00 0.00 0.00 84 1018.5
20220627101535 27 238 0.0 0.0 0.00 0.00 0.00 83 1018.4
20220627101436 27 238 0.0 0.0 0.00 0.00 0.00 83 1018.4
20220627101335 27 238 0.0 0.0 0.00 0.00 0.00 83 1018.4
20220627101238 27 238 0.0 0.0 0.00 0.00 0.00 83 1018.3
20220627101135 27 238 0.0 0.0 0.00 0.00 0.00 83 1018.3
20220627101035 27 238 0.0 0.0 0.00 0.00 0.00 83 1018.4
20220627100935 27 238 0.0 0.0 0.00 0.00 0.00 83 1018.3
20220627100834 27 238 0.0 0.0 0.00 0.00 0.00 83 1018.3
20220627100734 27 238 0.0 0.0 0.00 0.00 0.00 83 1018.3
20220627100634 27 238 0.0 0.0 0.00 0.00 0.00 83 1018.4
20220627100535 27 238 0.0 0.0 0.00 0.00 0.00 83 1018.3
20220627100435 27 238 0.0 0.0 0.00 0.00 0.00 83 1018.3
20220627100334 27 238 0.0 1.6 0.00 0.00 0.00 83 1018.3
20220627100234 27 238 0.0 3.2 0.00 0.00 0.00 83 1018.3
20220627100135 27 238 0.0 3.2 0.00 0.00 0.00 83 1018.3
20220627100034 27 238 0.0 3.2 0.00 0.00 0.00 83 1018.3
20220627095936 27 238 0.0 3.2 0.00 0.00 0.00 83 1018.2
20220627095834 27 238 0.0 3.2 0.00 0.00 0.00 83 1018.3
20220627095737 27 238 0.0 3.2 0.00 0.00 0.00 83 1018.2
20220627095635 27 238 0.0 4.8 0.00 0.00 0.00 83 1018.3
20220627095535 27 238 0.0 4.8 0.00 0.00 0.00 83 1018.2
20220627095439 27 238 1.6 4.8 0.00 0.00 0.00 83 1018.3
20220627095335 27 238 1.6 4.8 0.00 0.00 0.00 84 1018.2
20220627095234 27 238 1.6 4.8 0.00 0.00 0.00 84 1018.3
20220627095136 27 238 1.6 4.8 0.00 0.00 0.00 84 1018.2
20220627095034 27 238 3.2 4.8 0.00 0.00 0.00 84 1018.2
20220627094935 27 238 3.2 4.8 0.00 0.00 0.00 84 1018.2
20220627094834 27 238 3.2 4.8 0.00 0.00 0.00 84 1018.2
20220627094734 27 238 3.2 4.8 0.00 0.00 0.00 85 1018.1
20220627094634 27 238 3.2 4.8 0.00 0.00 0.00 85 1018.1
20220627094533 27 238 3.2 4.8 0.00 0.00 0.00 85 1018.1
20220627094434 27 238 3.2 4.8 0.00 0.00 0.00 85 1018.1
20220627094335 26 238 1.6 3.2 0.00 0.00 0.00 85 1018.1
20220627094234 26 238 0.0 1.6 0.00 0.00 0.00 85 1018.1
20220627094134 26 238 0.0 0.0 0.00 0.00 0.00 85 1018.2
20220627094034 26 238 0.0 0.0 0.00 0.00 0.00 85 1018.2
20220627093935 26 238 0.0 0.0 0.00 0.00 0.00 85 1018.2
20220627093834 26 238 0.0 0.0 0.00 0.00 0.00 85 1018.2
20220627093736 26 238 0.0 0.0 0.00 0.00 0.00 85 1018.2
20220627093634 26 238 0.0 0.0 0.00 0.00 0.00 85 1018.2
20220627093535 26 238 0.0 0.0 0.00 0.00 0.00 85 1018.2
20220627093436 26 238 0.0 0.0 0.00 0.00 0.00 85 1018.2
20220627093334 26 238 0.0 1.6 0.00 0.00 0.00 85 1018.3
20220627093233 26 238 0.0 1.6 0.00 0.00 0.00 85 1018.3
20220627093134 26 238 0.0 3.2 0.00 0.00 0.00 85 1018.3
20220627093036 26 238 0.0 3.2 0.00 0.00 0.00 85 1018.3
20220627092934 26 238 0.0 3.2 0.00 0.00 0.00 85 1018.3
20220627092834 26 238 0.0 3.2 0.00 0.00 0.00 85 1018.3
20220627092735 26 238 0.0 3.2 0.00 0.00 0.00 85 1018.4
20220627092635 26 238 0.0 3.2 0.00 0.00 0.00 85 1018.3
20220627092535 26 238 0.0 3.2 0.00 0.00 0.00 85 1018.3
20220627092433 26 238 0.0 3.2 0.00 0.00 0.00 85 1018.3
20220627092337 26 238 1.6 3.2 0.00 0.00 0.00 85 1018.3
20220627092234 26 238 1.6 3.2 0.00 0.00 0.00 85 1018.3
20220627092134 26 238 0.0 3.2 0.00 0.00 0.00 85 1018.3
20220627092035 26 238 0.0 3.2 0.00 0.00 0.00 85 1018.3
20220627091934 26 238 0.0 3.2 0.00 0.00 0.00 85 1018.3
20220627091834 26 238 0.0 4.8 0.00 0.00 0.00 85 1018.3
20220627091734 26 238 1.6 4.8 0.00 0.00 0.00 85 1018.3
20220627091635 26 238 1.6 4.8 0.00 0.00 0.00 85 1018.4
20220627091535 26 238 1.6 4.8 0.00 0.00 0.00 85 1018.3
20220627091433 26 238 1.6 4.8 0.00 0.00 0.00 85 1018.3
20220627091335 26 238 1.6 4.8 0.00 0.00 0.00 85 1018.3
20220627091235 26 238 1.6 4.8 0.00 0.00 0.00 85 1018.4
20220627091135 26 238 1.6 4.8 0.00 0.00 0.00 85 1018.3
20220627091034 26 238 1.6 4.8 0.00 0.00 0.00 85 1018.3
20220627090936 26 238 1.6 4.8 0.00 0.00 0.00 85 1018.3
20220627090838 26 238 1.6 3.2 0.00 0.00 0.00 84 1018.3
20220627090734 26 238 0.0 3.2 0.00 0.00 0.00 84 1018.3
20220627090635 27 238 0.0 3.2 0.00 0.00 0.00 84 1018.3
20220627090536 27 238 1.6 3.2 0.00 0.00 0.00 84 1018.2
20220627090437 27 238 1.6 3.2 0.00 0.00 0.00 84 1018.4
20220627090336 27 238 1.6 3.2 0.00 0.00 0.00 84 1018.2
20220627090234 27 238 1.6 4.8 0.00 0.00 0.00 84 1018.2
20220627090133 27 238 1.6 4.8 0.00 0.00 0.00 84 1018.2
20220627090034 27 238 1.6 4.8 0.00 0.00 0.00 84 1018.2
20220627085940 27 238 1.6 4.8 0.00 0.00 0.00 84 1018.2
20220627085834 27 238 1.6 4.8 0.00 0.00 0.00 84 1018.2
20220627085735 27 238 1.6 4.8 0.00 0.00 0.00 84 1018.1
20220627085635 27 238 1.6 4.8 0.00 0.00 0.00 83 1018.2
20220627085535 27 238 3.2 4.8 0.00 0.00 0.00 83 1018.2
20220627085433 27 238 3.2 4.8 0.00 0.00 0.00 83 1018.2
20220627085335 27 238 1.6 4.8 0.00 0.00 0.00 83 1018.2
20220627085234 27 238 0.0 3.2 0.00 0.00 0.00 83 1018.3
20220627085134 27 238 1.6 3.2 0.00 0.00 0.00 83 1018.2
20220627085034 27 238 1.6 3.2 0.00 0.00 0.00 83 1018.2
20220627084935 27 238 1.6 3.2 0.00 0.00 0.00 83 1018.3
20220627084836 27 238 1.6 3.2 0.00 0.00 0.00 83 1018.3
20220627084736 27 238 3.2 3.2 0.00 0.00 0.00 83 1018.3
20220627084636 27 238 1.6 3.2 0.00 0.00 0.00 83 1018.2
20220627084535 27 238 0.0 1.6 0.00 0.00 0.00 83 1018.4
20220627084435 27 238 0.0 1.6 0.00 0.00 0.00 83 1018.3
20220627084334 27 238 0.0 1.6 0.00 0.00 0.00 83 1018.4
20220627084234 27 238 0.0 1.6 0.00 0.00 0.00 83 1018.4
20220627084135 27 238 0.0 1.6 0.00 0.00 0.00 84 1018.4
20220627084033 27 238 0.0 0.0 0.00 0.00 0.00 84 1018.5
20220627083935 27 238 0.0 0.0 0.00 0.00 0.00 84 1018.5
20220627083835 27 238 0.0 0.0 0.00 0.00 0.00 84 1018.5
20220627083734 27 238 0.0 0.0 0.00 0.00 0.00 84 1018.5
20220627083634 27 238 0.0 0.0 0.00 0.00 0.00 84 1018.4
20220627083535 27 238 0.0 0.0 0.00 0.00 0.00 84 1018.4
20220627083433 27 238 0.0 0.0 0.00 0.00 0.00 84 1018.4
20220627083334 27 238 0.0 1.6 0.00 0.00 0.00 84 1018.4
20220627083237 27 238 0.0 1.6 0.00 0.00 0.00 84 1018.4
20220627083134 27 238 0.0 1.6 0.00 0.00 0.00 84 1018.4
20220627083034 27 238 0.0 3.2 0.00 0.00 0.00 84 1018.4
20220627082937 27 238 0.0 3.2 0.00 0.00 0.00 84 1018.4
20220627082834 27 238 0.0 3.2 0.00 0.00 0.00 84 1018.5
20220627082734 27 238 0.0 3.2 0.00 0.00 0.00 85 1018.5
20220627082635 27 238 0.0 3.2 0.00 0.00 0.00 85 1018.6
20220627082535 27 238 0.0 3.2 0.00 0.00 0.00 85 1018.6
20220627082434 27 238 0.0 3.2 0.00 0.00 0.00 85 1018.6
20220627082333 27 238 1.6 3.2 0.00 0.00 0.00 85 1018.6
20220627082236 27 238 1.6 3.2 0.00 0.00 0.00 85 1018.6
20220627082138 27 238 1.6 3.2 0.00 0.00 0.00 85 1018.6
20220627082034 27 238 1.6 3.2 0.00 0.00 0.00 85 1018.7
20220627081933 27 238 3.2 3.2 0.00 0.00 0.00 85 1018.5
20220627081833 27 238 1.6 3.2 0.00 0.00 0.00 85 1018.6
20220627081734 27 238 1.6 4.8 0.00 0.00 0.00 85 1018.7
20220627081634 27 238 1.6 4.8 0.00 0.00 0.00 85 1018.7
20220627081534 27 238 0.0 4.8 0.00 0.00 0.00 85 1018.7
20220627081435 27 238 0.0 4.8 0.00 0.00 0.00 85 1018.7
20220627081334 27 238 0.0 4.8 0.00 0.00 0.00 84 1018.8
20220627081234 27 238 0.0 4.8 0.00 0.00 0.00 84 1018.8
20220627081134 27 238 1.6 4.8 0.00 0.00 0.00 84 1018.7
20220627081034 27 238 1.6 4.8 0.00 0.00 0.00 84 1018.7
20220627080936 27 238 1.6 4.8 0.00 0.00 0.00 84 1018.6
20220627080836 27 238 3.2 4.8 0.00 0.00 0.00 84 1018.5
20220627080734 27 238 3.2 3.2 0.00 0.00 0.00 85 1018.5
20220627080634 27 238 3.2 3.2 0.00 0.00 0.00 85 1018.5
20220627080535 27 238 1.6 3.2 0.00 0.00 0.00 85 1018.5
20220627080436 27 238 1.6 3.2 0.00 0.00 0.00 85 1018.5
20220627080335 27 238 1.6 3.2 0.00 0.00 0.00 85 1018.4
20220627080234 27 238 0.0 1.6 0.00 0.00 0.00 86 1018.5
20220627080136 27 238 0.0 1.6 0.00 0.00 0.00 86 1018.6
20220627080033 27 238 0.0 1.6 0.00 0.00 0.00 86 1018.5
20220627075933 27 238 0.0 1.6 0.00 0.00 0.00 86 1018.5
20220627075835 26 238 0.0 1.6 0.00 0.00 0.00 86 1018.6
20220627075735 27 238 0.0 1.6 0.00 0.00 0.00 86 1018.6
20220627075634 26 238 0.0 1.6 0.00 0.00 0.00 86 1018.7
20220627075534 26 238 0.0 1.6 0.00 0.00 0.00 86 1018.7
20220627075435 26 238 0.0 1.6 0.00 0.00 0.00 86 1018.8
20220627075335 26 238 0.0 1.6 0.00 0.00 0.00 86 1018.7
20220627075234 27 238 0.0 1.6 0.00 0.00 0.00 86 1018.6
20220627075134 27 238 0.0 1.6 0.00 0.00 0.00 86 1018.7
20220627075033 27 238 1.6 1.6 0.00 0.00 0.00 85 1018.7
20220627074934 27 238 1.6 1.6 0.00 0.00 0.00 85 1018.8
20220627074835 27 238 0.0 1.6 0.00 0.00 0.00 85 1018.7
20220627074734 27 238 0.0 1.6 0.00 0.00 0.00 85 1018.7
20220627074636 27 238 1.6 1.6 0.00 0.00 0.00 85 1018.7
20220627074535 27 238 1.6 3.2 0.00 0.00 0.00 85 1018.7
20220627074435 27 238 1.6 3.2 0.00 0.00 0.00 85 1018.6
20220627074336 27 238 1.6 3.2 0.00 0.00 0.00 84 1018.6
20220627074238 27 238 1.6 3.2 0.00 0.00 0.00 84 1018.6
20220627074138 27 238 0.0 3.2 0.00 0.00 0.00 84 1018.6
20220627074034 27 238 0.0 3.2 0.00 0.00 0.00 83 1018.6
20220627073935 27 238 0.0 3.2 0.00 0.00 0.00 82 1018.6
20220627073835 27 238 0.0 3.2 0.00 0.00 0.00 82 1018.6
20220627073733 27 238 0.0 3.2 0.00 0.00 0.00 83 1018.6
20220627073635 27 238 1.6 3.2 0.00 0.00 0.00 83 1018.6
20220627073537 27 238 1.6 3.2 0.00 0.00 0.00 83 1018.7
20220627073435 27 238 1.6 3.2 0.00 0.00 0.00 83 1018.6
20220627073334 27 238 1.6 3.2 0.00 0.00 0.00 83 1018.6
20220627073235 27 238 1.6 3.2 0.00 0.00 0.00 84 1018.6
20220627073134 27 238 1.6 3.2 0.00 0.00 0.00 84 1018.6
20220627073033 27 238 1.6 3.2 0.00 0.00 0.00 84 1018.7
20220627072933 27 238 0.0 1.6 0.00 0.00 0.00 85 1018.6
20220627072834 27 238 0.0 3.2 0.00 0.00 0.00 85 1018.6
20220627072735 27 238 0.0 3.2 0.00 0.00 0.00 85 1018.7
20220627072635 27 238 0.0 3.2 0.00 0.00 0.00 85 1018.7
20220627072533 27 238 0.0 3.2 0.00 0.00 0.00 84 1018.8
20220627072434 27 238 0.0 3.2 0.00 0.00 0.00 84 1018.7
20220627072335 27 238 0.0 3.2 0.00 0.00 0.00 84 1018.8
20220627072234 27 238 0.0 3.2 0.00 0.00 0.00 83 1018.8
20220627072134 27 238 0.0 3.2 0.00 0.00 0.00 83 1018.8
20220627072035 28 238 1.6 3.2 0.00 0.00 0.00 82 1018.9
20220627071935 28 238 1.6 3.2 0.00 0.00 0.00 82 1018.8
20220627071834 28 238 1.6 3.2 0.00 0.00 0.00 82 1018.7
20220627071735 28 238 1.6 3.2 0.00 0.00 0.00 82 1018.7
20220627071635 28 238 1.6 3.2 0.00 0.00 0.00 82 1018.8
20220627071535 28 238 1.6 3.2 0.00 0.00 0.00 82 1018.8
20220627071433 28 238 1.6 3.2 0.00 0.00 0.00 82 1018.7
20220627071334 28 238 1.6 3.2 0.00 0.00 0.00 82 1018.7
20220627071234 28 238 1.6 3.2 0.00 0.00 0.00 82 1018.7
20220627071138 28 238 1.6 3.2 0.00 0.00 0.00 82 1018.8
20220627071035 28 238 1.6 3.2 0.00 0.00 0.00 83 1018.8
20220627070934 28 238 1.6 3.2 0.00 0.00 0.00 83 1018.8
20220627070834 27 238 1.6 3.2 0.00 0.00 0.00 83 1018.9
20220627070735 27 238 1.6 3.2 0.00 0.00 0.00 83 1018.9
20220627070637 27 238 1.6 3.2 0.00 0.00 0.00 83 1018.8
20220627070535 27 238 0.0 3.2 0.00 0.00 0.00 82 1018.8
20220627070434 28 238 0.0 3.2 0.00 0.00 0.00 82 1018.8
20220627070334 28 238 0.0 3.2 0.00 0.00 0.00 82 1018.8
20220627070234 28 238 0.0 3.2 0.00 0.00 0.00 82 1018.8
20220627070136 28 238 0.0 3.2 0.00 0.00 0.00 82 1018.7
20220627070038 28 238 1.6 3.2 0.00 0.00 0.00 82 1018.7
20220627065935 28 238 1.6 3.2 0.00 0.00 0.00 82 1018.7
20220627065834 28 238 0.0 3.2 0.00 0.00 0.00 82 1018.7
20220627065734 28 238 0.0 1.6 0.00 0.00 0.00 82 1018.7
20220627065635 28 238 0.0 1.6 0.00 0.00 0.00 82 1018.8
20220627065535 28 238 0.0 1.6 0.00 0.00 0.00 82 1018.8
20220627065434 28 238 0.0 1.6 0.00 0.00 0.00 82 1018.9
20220627065334 28 238 0.0 1.6 0.00 0.00 0.00 81 1018.9
20220627065235 28 238 0.0 1.6 0.00 0.00 0.00 81 1018.8
20220627065134 28 238 0.0 1.6 0.00 0.00 0.00 80 1018.9
20220627065033 28 238 0.0 1.6 0.00 0.00 0.00 80 1018.8
20220627064935 28 238 0.0 1.6 0.00 0.00 0.00 80 1018.8
20220627064833 28 238 0.0 3.2 0.00 0.00 0.00 80 1018.8
20220627064734 28 238 0.0 3.2 0.00 0.00 0.00 80 1018.8
20220627064635 28 238 1.6 4.8 0.00 0.00 0.00 79 1018.8
20220627064539 28 238 1.6 4.8 0.00 0.00 0.00 80 1018.9
20220627064434 28 238 0.0 4.8 0.00 0.00 0.00 81 1019.0
20220627064346 28 238 0.0 4.8 0.00 0.00 0.00 81 1019.0
20220627064237 28 238 0.0 4.8 0.00 0.00 0.00 81 1019.1
20220627064137 28 238 0.0 4.8 0.00 0.00 0.00 81 1019.1
20220627064034 28 238 0.0 4.8 0.00 0.00 0.00 81 1019.2
20220627063933 28 238 1.6 4.8 0.00 0.00 0.00 80 1019.1
20220627063834 28 238 3.2 4.8 0.00 0.00 0.00 80 1019.2
20220627063734 28 238 3.2 4.8 0.00 0.00 0.00 80 1019.1
20220627063635 28 238 3.2 4.8 0.00 0.00 0.00 80 1019.1
20220627063535 28 238 1.6 4.8 0.00 0.00 0.00 80 1019.0
20220627063433 28 238 0.0 3.2 0.00 0.00 0.00 80 1019.0
20220627063334 28 238 0.0 3.2 0.00 0.00 0.00 80 1018.9
20220627063235 28 238 0.0 3.2 0.00 0.00 0.00 80 1018.9
20220627063134 28 238 0.0 3.2 0.00 0.00 0.00 79 1018.9
20220627063034 28 238 0.0 3.2 0.00 0.00 0.00 79 1018.9
20220627062939 28 238 0.0 3.2 0.00 0.00 0.00 79 1018.9
20220627062834 28 238 0.0 3.2 0.00 0.00 0.00 79 1018.8
20220627062733 28 238 1.6 3.2 0.00 0.00 0.00 79 1018.8
20220627062634 28 238 1.6 3.2 0.00 0.00 0.00 79 1018.7
20220627062537 28 238 0.0 1.6 0.00 0.00 0.00 79 1018.7
20220627062434 28 238 0.0 0.0 0.00 0.00 0.00 79 1018.8
20220627062335 28 238 0.0 1.6 0.00 0.00 0.00 79 1018.8
20220627062234 28 238 0.0 1.6 0.00 0.00 0.00 79 1018.7
20220627062135 28 238 0.0 1.6 0.00 0.00 0.00 79 1018.8
20220627062034 28 238 0.0 1.6 0.00 0.00 0.00 79 1018.7
20220627061934 28 238 0.0 1.6 0.00 0.00 0.00 79 1018.8
20220627061834 28 238 0.0 3.2 0.00 0.00 0.00 79 1018.8
20220627061735 28 238 0.0 3.2 0.00 0.00 0.00 78 1018.8
20220627061634 28 238 0.0 3.2 0.00 0.00 0.00 78 1018.9
20220627061533 28 238 0.0 3.2 0.00 0.00 0.00 78 1018.9
20220627061434 28 238 0.0 3.2 0.00 0.00 0.00 78 1018.9
20220627061335 28 238 0.0 3.2 0.00 0.00 0.00 78 1018.9
20220627061234 28 238 0.0 3.2 0.00 0.00 0.00 78 1018.9
20220627061135 28 238 0.0 4.8 0.00 0.00 0.00 78 1018.9
20220627061034 28 238 0.0 4.8 0.00 0.00 0.00 78 1018.9
20220627060934 28 238 0.0 4.8 0.00 0.00 0.00 78 1018.8
20220627060834 28 238 0.0 4.8 0.00 0.00 0.00 78 1018.8
20220627060735 28 238 1.6 4.8 0.00 0.00 0.00 78 1018.8
20220627060635 28 238 1.6 4.8 0.00 0.00 0.00 77 1018.8
20220627060534 28 238 1.6 4.8 0.00 0.00 0.00 77 1018.8
20220627060434 28 238 1.6 4.8 0.00 0.00 0.00 77 1018.8
20220627060335 28 238 3.2 4.8 0.00 0.00 0.00 77 1018.8
20220627060234 28 238 3.2 8.0 0.00 0.00 0.00 77 1018.7
20220627060134 29 238 1.6 8.0 0.00 0.00 0.00 77 1018.7
20220627060034 28 238 1.6 9.7 0.00 0.00 0.00 77 1018.6
20220627055935 29 238 3.2 9.7 0.00 0.00 0.00 77 1018.7
20220627055836 29 238 3.2 9.7 0.00 0.00 0.00 77 1018.7
20220627055734 29 238 3.2 9.7 0.00 0.00 0.00 77 1018.6
20220627055635 29 238 3.2 9.7 0.00 0.00 0.00 77 1018.6
20220627055538 28 238 3.2 9.7 0.00 0.00 0.00 77 1018.5
20220627055435 28 238 3.2 9.7 0.00 0.00 0.00 77 1018.5
20220627055334 28 237 6.4 9.7 0.00 0.00 0.00 77 1018.5
20220627055234 28 234 6.4 9.7 0.00 0.00 0.00 77 1018.4
20220627055135 29 228 6.4 9.7 0.00 0.00 0.00 77 1018.6
20220627055033 29 234 6.4 8.0 0.00 0.00 0.00 77 1018.5
20220627054934 29 243 6.4 8.0 0.00 0.00 0.00 77 1018.5
20220627054836 29 227 6.4 8.0 0.00 0.00 0.00 77 1018.5
20220627054737 29 227 4.8 6.4 0.00 0.00 0.00 77 1018.5
20220627054633 29 227 3.2 8.0 0.00 0.00 0.00 77 1018.5
20220627054533 29 227 3.2 8.0 0.00 0.00 0.00 77 1018.5
20220627054435 29 227 3.2 8.0 0.00 0.00 0.00 77 1018.5
20220627054334 29 227 3.2 11.3 0.00 0.00 0.00 77 1018.4
20220627054234 29 227 4.8 11.3 0.00 0.00 0.00 77 1018.5
20220627054135 29 227 4.8 11.3 0.00 0.00 0.00 77 1018.5
20220627054034 29 227 4.8 11.3 0.00 0.00 0.00 77 1018.4
20220627053935 29 227 4.8 11.3 0.00 0.00 0.00 77 1018.5
20220627053836 29 228 4.8 11.3 0.00 0.00 0.00 77 1018.5
20220627053734 29 228 4.8 11.3 0.00 0.00 0.00 77 1018.5
20220627053634 28 230 4.8 11.3 0.00 0.00 0.00 77 1018.4
20220627053534 28 230 6.4 11.3 0.00 0.00 0.00 77 1018.5
20220627053435 28 230 6.4 11.3 0.00 0.00 0.00 77 1018.5
20220627053334 28 219 4.8 9.7 0.00 0.00 0.00 77 1018.5
20220627053234 28 219 6.4 9.7 0.00 0.00 0.00 77 1018.4
20220627053138 28 219 8.0 9.7 0.00 0.00 0.00 77 1018.4
20220627053035 28 228 8.0 11.3 0.00 0.00 0.00 77 1018.4
20220627052934 28 203 6.4 11.3 0.00 0.00 0.00 77 1018.4
20220627052834 28 209 4.8 11.3 0.00 0.00 0.00 77 1018.4
20220627052735 28 209 4.8 11.3 0.00 0.00 0.00 77 1018.4
20220627052634 28 209 4.8 11.3 0.00 0.00 0.00 77 1018.4
20220627052534 28 212 4.8 11.3 0.00 0.00 0.00 77 1018.3
20220627052438 28 214 4.8 11.3 0.00 0.00 0.00 77 1018.3
20220627052336 28 214 6.4 11.3 0.00 0.00 0.00 77 1018.4
20220627052233 28 216 8.0 11.3 0.00 0.00 0.00 77 1018.4
20220627052134 28 190 8.0 11.3 0.00 0.00 0.00 77 1018.4
20220627052034 28 203 8.0 11.3 0.00 0.00 0.00 77 1018.3
20220627051934 28 190 8.0 11.3 0.00 0.00 0.00 77 1018.3
20220627051835 28 200 6.4 9.7 0.00 0.00 0.00 77 1018.3
20220627051736 28 197 4.8 9.7 0.00 0.00 0.00 77 1018.2
20220627051634 28 200 6.4 9.7 0.00 0.00 0.00 77 1018.2
20220627051533 28 196 6.4 9.7 0.00 0.00 0.00 77 1018.3
20220627051435 28 197 6.4 9.7 0.00 0.00 0.00 77 1018.3
20220627051335 28 195 6.4 9.7 0.00 0.00 0.00 77 1018.3
20220627051234 28 193 6.4 9.7 0.00 0.00 0.00 76 1018.2
20220627051134 28 197 6.4 9.7 0.00 0.00 0.00 76 1018.2
20220627051038 28 195 6.4 9.7 0.00 0.00 0.00 76 1018.3
20220627050934 28 199 6.4 11.3 0.00 0.00 0.00 76 1018.3
20220627050833 28 197 6.4 11.3 0.00 0.00 0.00 76 1018.3
20220627050738 28 199 6.4 11.3 0.00 0.00 0.00 76 1018.3
20220627050634 28 202 6.4 11.3 0.00 0.00 0.00 76 1018.3
20220627050533 28 202 6.4 11.3 0.00 0.00 0.00 76 1018.2
20220627050433 28 190 6.4 11.3 0.00 0.00 0.00 76 1018.3
20220627050338 28 204 6.4 11.3 0.00 0.00 0.00 76 1018.3
20220627050234 28 217 6.4 11.3 0.00 0.00 0.00 76 1018.3
20220627050134 28 216 6.4 14.5 0.00 0.00 0.00 76 1018.3
20220627050034 28 189 8.0 14.5 0.00 0.00 0.00 76 1018.3
20220627045934 28 212 6.4 14.5 0.00 0.00 0.00 76 1018.3
20220627045836 28 213 6.4 14.5 0.00 0.00 0.00 76 1018.2
20220627045734 28 216 8.0 14.5 0.00 0.00 0.00 76 1018.3
20220627045635 28 200 8.0 14.5 0.00 0.00 0.00 76 1018.3
20220627045534 28 204 8.0 14.5 0.00 0.00 0.00 75 1018.3
20220627045437 28 200 8.0 14.5 0.00 0.00 0.00 75 1018.3
20220627045335 28 212 9.7 14.5 0.00 0.00 0.00 75 1018.3
20220627045234 28 185 8.0 14.5 0.00 0.00 0.00 75 1018.3
20220627045134 28 197 8.0 14.5 0.00 0.00 0.00 75 1018.3
20220627045035 29 175 8.0 14.5 0.00 0.00 0.00 75 1018.3
20220627044934 29 199 9.7 14.5 0.00 0.00 0.00 75 1018.3
20220627044836 29 183 9.7 14.5 0.00 0.00 0.00 75 1018.3
20220627044734 29 185 8.0 11.3 0.00 0.00 0.00 75 1018.3
20220627044637 29 197 8.0 11.3 0.00 0.00 0.00 75 1018.4
20220627044536 29 188 8.0 11.3 0.00 0.00 0.00 75 1018.4
20220627044434 29 185 6.4 11.3 0.00 0.00 0.00 75 1018.4
20220627044335 29 195 6.4 14.5 0.00 0.00 0.00 75 1018.4
20220627044233 29 195 8.0 14.5 0.00 0.00 0.00 75 1018.5
20220627044134 29 196 8.0 14.5 0.00 0.00 0.00 75 1018.5
20220627044035 29 189 6.4 14.5 0.00 0.00 0.00 75 1018.5
20220627043935 29 190 6.4 14.5 0.00 0.00 0.00 74 1018.5
20220627043835 29 190 8.0 14.5 0.00 0.00 0.00 74 1018.5
20220627043733 29 189 8.0 14.5 0.00 0.00 0.00 74 1018.6
20220627043635 29 189 8.0 14.5 0.00 0.00 0.00 74 1018.5
20220627043534 29 183 8.0 14.5 0.00 0.00 0.00 74 1018.5
20220627043435 29 197 8.0 14.5 0.00 0.00 0.00 74 1018.3
20220627043334 29 207 8.0 9.7 0.00 0.00 0.00 74 1018.3
20220627043235 29 204 8.0 9.7 0.00 0.00 0.00 74 1018.4
20220627043136 29 199 8.0 9.7 0.00 0.00 0.00 74 1018.3
20220627043034 29 185 6.4 9.7 0.00 0.00 0.00 74 1018.4
20220627042938 29 180 6.4 9.7 0.00 0.00 0.00 74 1018.4
20220627042835 29 179 4.8 9.7 0.00 0.00 0.00 74 1018.4
20220627042733 29 179 4.8 9.7 0.00 0.00 0.00 74 1018.4
20220627042635 29 180 6.4 9.7 0.00 0.00 0.00 74 1018.4
20220627042533 29 175 6.4 9.7 0.00 0.00 0.00 74 1018.4
20220627042436 29 169 6.4 9.7 0.00 0.00 0.00 74 1018.4
20220627042334 29 202 6.4 9.7 0.00 0.00 0.00 74 1018.5
20220627042237 29 176 6.4 8.0 0.00 0.00 0.00 74 1018.5
20220627042136 29 175 4.8 8.0 0.00 0.00 0.00 74 1018.5
20220627042033 29 185 4.8 8.0 0.00 0.00 0.00 74 1018.6
20220627041935 29 185 4.8 8.0 0.00 0.00 0.00 74 1018.5
20220627041835 29 185 4.8 8.0 0.00 0.00 0.00 74 1018.5
20220627041734 29 195 4.8 8.0 0.00 0.00 0.00 74 1018.4
20220627041635 29 185 4.8 8.0 0.00 0.00 0.00 74 1018.5
20220627041534 29 180 4.8 8.0 0.00 0.00 0.00 74 1018.6
20220627041434 29 180 4.8 8.0 0.00 0.00 0.00 74 1018.5
20220627041333 29 178 4.8 8.0 0.00 0.00 0.00 74 1018.6
20220627041234 29 178 4.8 8.0 0.00 0.00 0.00 74 1018.5
20220627041133 29 178 4.8 8.0 0.00 0.00 0.00 74 1018.5
20220627041034 29 178 4.8 8.0 0.00 0.00 0.00 74 1018.5
20220627040935 29 176 3.2 8.0 0.00 0.00 0.00 74 1018.4
20220627040835 29 176 3.2 8.0 0.00 0.00 0.00 74 1018.4
20220627040734 29 176 4.8 8.0 0.00 0.00 0.00 73 1018.4
20220627040634 29 176 4.8 8.0 0.00 0.00 0.00 73 1018.4
20220627040534 29 176 3.2 8.0 0.00 0.00 0.00 73 1018.5
20220627040435 29 176 3.2 8.0 0.00 0.00 0.00 73 1018.3
20220627040336 29 176 4.8 8.0 0.00 0.00 0.00 73 1018.3
20220627040238 29 176 4.8 8.0 0.00 0.00 0.00 73 1018.3
20220627040133 29 175 4.8 6.4 0.00 0.00 0.00 73 1018.3
20220627040036 29 175 4.8 6.4 0.00 0.00 0.00 73 1018.3
20220627035933 29 144 4.8 6.4 0.00 0.00 0.00 74 1018.3
20220627035833 29 144 4.8 6.4 0.00 0.00 0.00 73 1018.3
20220627035734 29 144 3.2 6.4 0.00 0.00 0.00 73 1018.3
20220627035634 29 144 3.2 6.4 0.00 0.00 0.00 73 1018.4
20220627035535 29 144 4.8 6.4 0.00 0.00 0.00 73 1018.4
20220627035433 29 144 3.2 6.4 0.00 0.00 0.00 73 1018.4
20220627035333 29 144 3.2 6.4 0.00 0.00 0.00 74 1018.3
20220627035238 29 144 3.2 6.4 0.00 0.00 0.00 73 1018.4
20220627035136 29 144 3.2 6.4 0.00 0.00 0.00 73 1018.3
20220627035033 30 144 3.2 6.4 0.00 0.00 0.00 73 1018.2
20220627034934 30 144 4.8 6.4 0.00 0.00 0.00 73 1018.3
20220627034836 30 144 4.8 6.4 0.00 0.00 0.00 73 1018.3
20220627034734 30 144 4.8 6.4 0.00 0.00 0.00 73 1018.2
20220627034634 30 144 3.2 6.4 0.00 0.00 0.00 73 1018.3
20220627034535 30 137 3.2 6.4 0.00 0.00 0.00 73 1018.2
20220627034435 30 135 3.2 6.4 0.00 0.00 0.00 73 1018.2
20220627034333 30 135 3.2 6.4 0.00 0.00 0.00 73 1018.1
20220627034233 30 133 3.2 8.0 0.00 0.00 0.00 73 1018.2
20220627034135 30 133 3.2 9.7 0.00 0.00 0.00 73 1018.2
20220627034034 30 127 3.2 9.7 0.00 0.00 0.00 73 1018.1
20220627033933 30 127 3.2 9.7 0.00 0.00 0.00 73 1018.1
20220627033834 30 123 3.2 9.7 0.00 0.00 0.00 72 1018.2
20220627033734 30 121 3.2 9.7 0.00 0.00 0.00 73 1018.2
20220627033633 30 121 3.2 9.7 0.00 0.00 0.00 72 1018.1
20220627033536 30 117 4.8 11.3 0.00 0.00 0.00 72 1018.1
20220627033434 30 117 6.4 11.3 0.00 0.00 0.00 72 1018.1
20220627033333 30 147 6.4 11.3 0.00 0.00 0.00 72 1018.2
20220627033234 30 124 6.4 11.3 0.00 0.00 0.00 72 1018.0
20220627033133 30 117 4.8 11.3 0.00 0.00 0.00 73 1018.1
20220627033034 30 99 6.4 14.5 0.00 0.00 0.00 72 1018.1
20220627032933 30 104 4.8 14.5 0.00 0.00 0.00 72 1018.1
20220627032834 30 73 4.8 14.5 0.00 0.00 0.00 72 1018.0
20220627032733 30 78 6.4 14.5 0.00 0.00 0.00 72 1018.0
20220627032634 30 100 8.0 17.7 0.00 0.00 0.00 72 1018.1
20220627032535 30 99 6.4 22.5 0.00 0.00 0.00 72 1018.1
20220627032434 30 92 6.4 22.5 0.00 0.00 0.00 72 1018.0
20220627032333 30 131 4.8 22.5 0.00 0.00 0.00 72 1018.0
20220627032233 30 149 8.0 22.5 0.00 0.00 0.00 72 1018.0
20220627032135 30 159 8.0 22.5 0.00 0.00 0.00 72 1017.9
20220627032034 30 162 8.0 22.5 0.00 0.00 0.00 72 1017.8
20220627031935 30 183 8.0 22.5 0.00 0.00 0.00 72 1017.7
20220627031833 30 175 9.7 22.5 0.00 0.00 0.00 72 1017.5
20220627031737 30 193 12.9 22.5 0.00 0.00 0.00 71 1017.5
20220627031635 30 178 12.9 22.5 0.00 0.00 0.00 71 1017.4
20220627031534 30 214 11.3 20.9 0.00 0.00 0.00 71 1017.3
20220627031434 30 169 12.9 20.9 0.00 0.00 0.00 71 1017.4
20220627031334 30 212 14.5 20.9 0.00 0.00 0.00 71 1017.3
20220627031233 30 226 14.5 20.9 0.00 0.00 0.00 71 1017.3
20220627031135 30 206 12.9 20.9 0.00 0.00 0.00 71 1017.4
20220627031035 30 214 14.5 20.9 0.00 0.00 0.00 71 1017.3
20220627030934 30 207 14.5 20.9 0.00 0.00 0.00 71 1017.4
20220627030834 30 182 14.5 20.9 0.00 0.00 0.00 71 1017.4
20220627030735 30 180 12.9 19.3 0.00 0.00 0.00 71 1017.3
20220627030634 30 217 12.9 19.3 0.00 0.00 0.00 71 1017.3
20220627030534 30 186 11.3 17.7 0.00 0.00 0.00 71 1017.2
20220627030436 30 193 11.3 16.1 0.00 0.00 0.00 70 1017.2
20220627030334 30 152 11.3 16.1 0.00 0.00 0.00 70 1017.2
20220627030233 30 199 9.7 16.1 0.00 0.00 0.00 70 1017.2
20220627030133 30 186 8.0 19.3 0.00 0.00 0.00 70 1017.2
20220627030034 30 213 9.7 19.3 0.00 0.00 0.00 70 1017.2
20220627025934 30 199 9.7 19.3 0.00 0.00 0.00 70 1017.3
20220627025835 30 189 9.7 19.3 0.00 0.00 0.00 69 1017.2
20220627025735 30 182 11.3 20.9 0.00 0.00 0.00 69 1017.2
20220627025633 30 189 11.3 20.9 0.00 0.00 0.00 69 1017.3
20220627025536 30 179 9.7 20.9 0.00 0.00 0.00 69 1017.2
20220627025435 30 180 9.7 20.9 0.00 0.00 0.00 69 1017.2
20220627025333 30 223 11.3 20.9 0.00 0.00 0.00 68 1017.2
20220627025235 30 202 12.9 20.9 0.00 0.00 0.00 68 1017.1
20220627025134 30 192 12.9 20.9 0.00 0.00 0.00 68 1017.1
20220627025034 30 197 12.9 20.9 0.00 0.00 0.00 67 1017.0
20220627024933 30 195 11.3 20.9 0.00 0.00 0.00 67 1016.9
20220627024833 30 196 11.3 20.9 0.00 0.00 0.00 67 1016.9
20220627024735 30 192 9.7 17.7 0.00 0.00 0.00 67 1016.9
20220627024634 30 190 9.7 17.7 0.00 0.00 0.00 66 1017.0
20220627024533 30 196 9.7 17.7 0.00 0.00 0.00 66 1017.0
20220627024433 30 183 9.7 17.7 0.00 0.00 0.00 66 1017.1
20220627024337 30 196 9.7 17.7 0.00 0.00 0.00 66 1017.2
20220627024236 30 197 9.7 17.7 0.00 0.00 0.00 66 1017.1
20220627024134 30 186 11.3 17.7 0.00 0.00 0.00 65 1017.1
20220627024039 30 196 9.7 20.9 0.00 0.00 0.00 65 1017.0
20220627023934 30 186 12.9 20.9 0.00 0.00 0.00 65 1017.1
20220627023833 30 189 12.9 20.9 0.00 0.00 0.00 65 1017.0
20220627023735 30 210 9.7 20.9 0.00 0.00 0.00 64 1017.0
20220627023638 31 185 9.7 20.9 0.00 0.00 0.00 64 1016.8
20220627023534 31 186 8.0 20.9 0.00 0.00 0.00 64 1017.0
20220627023433 31 189 8.0 20.9 0.00 0.00 0.00 64 1016.9
20220627023338 31 199 8.0 20.9 0.00 0.00 0.00 64 1016.9
20220627023234 31 193 11.3 20.9 0.00 0.00 0.00 63 1016.9
20220627023133 31 193 12.9 20.9 0.00 0.00 0.00 63 1016.9
20220627023035 31 197 11.3 20.9 0.00 0.00 0.00 63 1016.9
20220627022935 31 186 11.3 20.9 0.00 0.00 0.00 63 1016.9
20220627022834 31 197 12.9 20.9 0.00 0.00 0.00 62 1016.8
20220627022734 31 200 12.9 20.9 0.00 0.00 0.00 62 1016.8
20220627022635 31 188 12.9 20.9 0.00 0.00 0.00 62 1016.8
20220627022534 31 193 12.9 20.9 0.00 0.00 0.00 62 1016.9
20220627022435 31 178 12.9 20.9 0.00 0.00 0.00 61 1016.8
20220627022335 31 199 9.7 20.9 0.00 0.00 0.00 61 1016.9
20220627022237 31 183 8.0 16.1 0.00 0.00 0.00 61 1016.9
20220627022134 31 203 8.0 16.1 0.00 0.00 0.00 61 1016.9
20220627022034 31 183 9.7 17.7 0.00 0.00 0.00 61 1016.9
20220627021934 31 178 9.7 17.7 0.00 0.00 0.00 61 1016.9
20220627021833 31 190 8.0 19.3 0.00 0.00 0.00 60 1016.8
20220627021733 31 188 9.7 19.3 0.00 0.00 0.00 61 1016.9
20220627021635 31 185 9.7 19.3 0.00 0.00 0.00 61 1016.9
20220627021534 31 176 9.7 19.3 0.00 0.00 0.00 60 1016.8
20220627021435 31 188 9.7 19.3 0.00 0.00 0.00 60 1016.9
20220627021333 31 189 9.7 19.3 0.00 0.00 0.00 60 1016.8
20220627021235 31 197 9.7 19.3 0.00 0.00 0.00 60 1016.8
20220627021135 31 210 12.9 19.3 0.00 0.00 0.00 60 1016.9
20220627021034 31 188 12.9 19.3 0.00 0.00 0.00 60 1016.9
20220627020935 31 190 11.3 19.3 0.00 0.00 0.00 61 1016.9
20220627020833 31 221 9.7 19.3 0.00 0.00 0.00 61 1016.9
20220627020733 31 202 11.3 19.3 0.00 0.00 0.00 61 1016.9
20220627020635 31 213 9.7 19.3 0.00 0.00 0.00 61 1016.8
20220627020534 31 180 11.3 19.3 0.00 0.00 0.00 60 1016.9
20220627020435 31 207 9.7 19.3 0.00 0.00 0.00 60 1016.8
20220627020334 31 185 11.3 19.3 0.00 0.00 0.00 60 1016.7
20220627020236 31 199 11.3 19.3 0.00 0.00 0.00 60 1016.7
20220627020134 31 200 11.3 20.9 0.00 0.00 0.00 60 1016.7
20220627020034 31 178 11.3 20.9 0.00 0.00 0.00 59 1016.7
20220627015934 31 203 9.7 20.9 0.00 0.00 0.00 59 1016.7
20220627015835 31 185 9.7 20.9 0.00 0.00 0.00 59 1016.7
20220627015733 31 182 11.3 20.9 0.00 0.00 0.00 59 1016.7
20220627015640 32 185 11.3 20.9 0.00 0.00 0.00 59 1016.7
20220627015535 32 195 12.9 20.9 0.00 0.00 0.00 59 1016.6
20220627015435 32 173 12.9 20.9 0.00 0.00 0.00 59 1016.6
20220627015333 32 192 14.5 20.9 0.00 0.00 0.00 59 1016.7
20220627015237 32 192 14.5 20.9 0.00 0.00 0.00 59 1016.6
20220627015134 32 172 12.9 17.7 0.00 0.00 0.00 59 1016.7
20220627015034 32 188 9.7 17.7 0.00 0.00 0.00 59 1016.6
20220627014938 32 212 9.7 17.7 0.00 0.00 0.00 59 1016.7
20220627014835 32 175 8.0 17.7 0.00 0.00 0.00 59 1016.6
20220627014733 32 183 8.0 17.7 0.00 0.00 0.00 59 1016.6
20220627014634 32 172 9.7 19.3 0.00 0.00 0.00 58 1016.6
20220627014535 32 185 9.7 19.3 0.00 0.00 0.00 58 1016.6
20220627014436 32 206 8.0 19.3 0.00 0.00 0.00 58 1016.7
20220627014334 32 189 9.7 19.3 0.00 0.00 0.00 58 1016.7
20220627014235 32 168 11.3 19.3 0.00 0.00 0.00 58 1016.6
20220627014134 32 186 9.7 19.3 0.00 0.00 0.00 58 1016.6
20220627014029 32 188 8.0 19.3 0.00 0.00 0.00 58 1016.5
20220627013927 32 193 8.0 19.3 0.00 0.00 0.00 57 1016.7
20220627013826 32 195 9.7 19.3 0.00 0.00 0.00 57 1016.6
20220627013725 32 189 14.5 19.3 0.00 0.00 0.00 57 1016.6
20220627013624 32 169 12.9 19.3 0.00 0.00 0.00 57 1016.5
20220627013519 32 159 11.3 19.3 0.00 0.00 0.00 56 1016.5
20220627013417 32 157 9.7 19.3 0.00 0.00 0.00 56 1016.5
20220627013319 32 195 9.7 19.3 0.00 0.00 0.00 56 1016.5
20220627013217 32 190 11.3 19.3 0.00 0.00 0.00 56 1016.4
20220627013114 32 189 11.3 19.3 0.00 0.00 0.00 56 1016.4
20220627013014 32 192 12.9 19.3 0.00 0.00 0.00 56 1016.4
20220627012914 32 196 12.9 19.3 0.00 0.00 0.00 55 1016.3
20220627012814 32 182 9.7 19.3 0.00 0.00 0.00 55 1016.3
20220627012713 32 195 8.0 17.7 0.00 0.00 0.00 55 1016.4
20220627012614 33 188 8.0 19.3 0.00 0.00 0.00 55 1016.4
20220627012516 33 189 8.0 19.3 0.00 0.00 0.00 55 1016.3
20220627012414 33 176 8.0 19.3 0.00 0.00 0.00 55 1016.4
20220627012316 33 179 8.0 19.3 0.00 0.00 0.00 55 1016.3
20220627012215 33 183 11.3 19.3 0.00 0.00 0.00 55 1016.3
20220627012113 33 166 11.3 19.3 0.00 0.00 0.00 54 1016.4
20220627012015 33 161 11.3 19.3 0.00 0.00 0.00 54 1016.4
20220627011914 33 182 11.3 19.3 0.00 0.00 0.00 54 1016.4
20220627011813 33 193 12.9 19.3 0.00 0.00 0.00 54 1016.4
20220627011714 33 179 12.9 19.3 0.00 0.00 0.00 54 1016.4
20220627011616 33 186 9.7 16.1 0.00 0.00 0.00 54 1016.4
20220627011514 33 196 11.3 16.1 0.00 0.00 0.00 54 1016.4
20220627011416 33 207 9.7 16.1 0.00 0.00 0.00 54 1016.4
20220627011315 33 189 8.0 16.1 0.00 0.00 0.00 54 1016.4
20220627011213 33 179 9.7 16.1 0.00 0.00 0.00 54 1016.3
20220627011114 33 195 9.7 16.1 0.00 0.00 0.00 54 1016.4
20220627011014 33 195 9.7 16.1 0.00 0.00 0.00 54 1016.4
20220627010914 33 202 9.7 16.1 0.00 0.00 0.00 54 1016.3
20220627010815 33 204 11.3 16.1 0.00 0.00 0.00 53 1016.3
20220627010714 33 186 9.7 16.1 0.00 0.00 0.00 54 1016.3
20220627010613 33 195 8.0 16.1 0.00 0.00 0.00 54 1016.3
20220627010514 33 168 9.7 16.1 0.00 0.00 0.00 54 1016.3
20220627010415 33 178 9.7 17.7 0.00 0.00 0.00 54 1016.3
20220627010313 33 178 9.7 17.7 0.00 0.00 0.00 53 1016.2
20220627010213 33 195 9.7 17.7 0.00 0.00 0.00 54 1016.2
20220627010114 33 183 9.7 17.7 0.00 0.00 0.00 53 1016.2
20220627010013 33 189 9.7 17.7 0.00 0.00 0.00 53 1016.3
20220627005914 33 206 11.3 17.7 0.00 0.00 0.00 53 1016.2
20220627005818 33 192 12.9 17.7 0.00 0.00 0.00 53 1016.3
20220627005714 33 168 11.3 17.7 0.00 0.00 0.00 53 1016.2
20220627005614 33 195 9.7 20.9 0.00 0.00 0.00 53 1016.2
20220627005513 33 176 8.0 20.9 0.00 0.00 0.00 53 1016.2
20220627005414 33 189 6.4 20.9 0.00 0.00 0.00 53 1016.2
20220627005313 33 171 8.0 20.9 0.00 0.00 0.00 53 1016.1
20220627005213 33 186 8.0 20.9 0.00 0.00 0.00 53 1016.2
20220627005114 33 189 11.3 20.9 0.00 0.00 0.00 52 1016.1
20220627005017 33 192 11.3 20.9 0.00 0.00 0.00 52 1016.1
20220627004912 34 180 11.3 20.9 0.00 0.00 0.00 52 1016.2
20220627004813 34 199 12.9 20.9 0.00 0.00 0.00 52 1016.1
20220627004715 34 189 12.9 20.9 0.00 0.00 0.00 52 1016.1
20220627004613 34 188 12.9 19.3 0.00 0.00 0.00 52 1016.1
20220627004513 34 171 12.9 19.3 0.00 0.00 0.00 52 1016.0
20220627004414 34 210 12.9 19.3 0.00 0.00 0.00 52 1016.0
20220627004314 34 210 12.9 19.3 0.00 0.00 0.00 52 1016.1
20220627004213 34 204 12.9 19.3 0.00 0.00 0.00 52 1016.1
20220627004112 34 188 11.3 17.7 0.00 0.00 0.00 52 1016.0
20220627004014 34 180 9.7 17.7 0.00 0.00 0.00 52 1016.0
20220627003914 34 172 11.3 17.7 0.00 0.00 0.00 52 1016.0
20220627003812 34 196 8.0 17.7 0.00 0.00 0.00 52 1015.9
20220627003713 34 188 6.4 16.1 0.00 0.00 0.00 52 1016.0
20220627003613 34 186 9.7 16.1 0.00 0.00 0.00 52 1016.0
20220627003515 34 186 9.7 16.1 0.00 0.00 0.00 52 1016.0
20220627003413 34 189 9.7 16.1 0.00 0.00 0.00 53 1015.9
20220627003314 34 189 11.3 16.1 0.00 0.00 0.00 53 1015.9
20220627003212 34 178 11.3 16.1 0.00 0.00 0.00 53 1015.9
20220627003113 34 200 11.3 16.1 0.00 0.00 0.00 52 1015.9
20220627003014 34 169 9.7 16.1 0.00 0.00 0.00 53 1015.9
20220627002912 34 189 9.7 14.5 0.00 0.00 0.00 53 1015.9
20220627002813 34 179 9.7 14.5 0.00 0.00 0.00 52 1016.0
20220627002713 34 192 8.0 14.5 0.00 0.00 0.00 52 1016.0
20220627002614 34 171 9.7 14.5 0.00 0.00 0.00 52 1015.9
20220627002512 34 166 11.3 14.5 0.00 0.00 0.00 52 1015.9
20220627002413 34 158 9.7 14.5 0.00 0.00 0.00 52 1015.9
20220627002313 34 176 8.0 11.3 0.00 0.00 0.00 52 1015.9
20220627002216 34 165 8.0 11.3 0.00 0.00 0.00 53 1015.9
20220627002113 34 179 8.0 11.3 0.00 0.00 0.00 53 1015.9
20220627002013 34 189 9.7 11.3 0.00 0.00 0.00 52 1015.9
20220627001915 34 196 6.4 11.3 0.00 0.00 0.00 53 1016.0
20220627001812 34 171 8.0 11.3 0.00 0.00 0.00 53 1016.0
20220627001715 34 185 8.0 11.3 0.00 0.00 0.00 53 1015.9
20220627001615 34 182 6.4 11.3 0.00 0.00 0.00 53 1016.0
20220627001512 34 196 6.4 11.3 0.00 0.00 0.00 53 1016.0
20220627001412 34 183 6.4 11.3 0.00 0.00 0.00 53 1016.0
20220627001313 34 185 8.0 11.3 0.00 0.00 0.00 53 1016.1
20220627001214 34 145 6.4 11.3 0.00 0.00 0.00 53 1016.0
20220627001112 34 140 6.4 11.3 0.00 0.00 0.00 53 1016.0
20220627001013 34 148 6.4 11.3 0.00 0.00 0.00 53 1015.9
20220627000912 34 114 8.0 11.3 0.00 0.00 0.00 53 1016.0
20220627000806 34 133 8.0 11.3 0.00 0.00 0.00 53 1015.9
20220627000705 34 140 6.4 19.3 0.00 0.00 0.00 53 1015.9
20220627000606 34 157 6.4 19.3 0.00 0.00 0.00 53 1015.9
20220627000502 34 131 6.4 19.3 0.00 0.00 0.00 53 1015.9
20220627000403 34 165 4.8 19.3 0.00 0.00 0.00 53 1015.9
20220627000303 34 149 6.4 19.3 0.00 0.00 0.00 53 1015.9
20220627000204 34 155 8.0 19.3 0.00 0.00 0.00 53 1015.8
20220627000102 34 157 8.0 19.3 0.00 0.00 0.00 52 1015.9
20220627000003 34 125 8.0 19.3 0.00 0.00 0.00 52 1015.9
20220626235907 34 141 9.7 19.3 0.00 0.00 0.00 52 1015.8
20220626235803 34 178 9.7 19.3 0.00 0.00 0.00 52 1015.7
20220626235701 34 151 8.0 16.1 0.00 0.00 0.00 51 1015.7
20220626235557 34 100 6.4 16.1 0.00 0.00 0.00 51 1015.7
20220626235458 34 130 6.4 16.1 0.00 0.00 0.00 52 1015.6
20220626235357 34 117 8.0 19.3 0.00 0.00 0.00 52 1015.6
20220626235254 34 169 9.7 19.3 0.00 0.00 0.00 52 1015.6
20220626235156 35 155 8.0 19.3 0.00 0.00 0.00 52 1015.6
20220626235059 35 158 8.0 19.3 0.00 0.00 0.00 52 1015.7
20220626234950 35 148 9.7 19.3 0.00 0.00 0.00 52 1015.7
20220626234851 35 165 8.0 19.3 0.00 0.00 0.00 51 1015.7
20220626234748 35 161 8.0 19.3 0.00 0.00 0.00 51 1015.7
20220626234646 35 134 9.7 19.3 0.00 0.00 0.00 50 1015.7
20220626234544 35 131 11.3 19.3 0.00 0.00 0.00 50 1015.7
20220626234442 35 154 9.7 19.3 0.00 0.00 0.00 50 1015.7
20220626234341 35 164 9.7 16.1 0.00 0.00 0.00 49 1015.7
20220626234236 35 117 8.0 16.1 0.00 0.00 0.00 49 1015.7
20220626234135 35 173 9.7 16.1 0.00 0.00 0.00 49 1015.7
20220626234034 35 158 11.3 16.1 0.00 0.00 0.00 49 1015.7
20220626233936 35 168 8.0 11.3 0.00 0.00 0.00 48 1015.7
20220626233834 35 144 4.8 11.3 0.00 0.00 0.00 48 1015.6
20220626233733 35 144 4.8 16.1 0.00 0.00 0.00 48 1015.6
20220626233637 35 168 6.4 16.1 0.00 0.00 0.00 48 1015.8
20220626233535 35 147 6.4 16.1 0.00 0.00 0.00 48 1015.7
20220626233435 35 123 6.4 16.1 0.00 0.00 0.00 47 1015.6
20220626233333 35 161 6.4 16.1 0.00 0.00 0.00 47 1015.7
20220626233235 35 118 8.0 16.1 0.00 0.00 0.00 47 1015.6
20220626233135 35 157 6.4 16.1 0.00 0.00 0.00 46 1015.6
20220626233033 35 165 8.0 16.1 0.00 0.00 0.00 46 1015.7
20220626232933 35 140 8.0 16.1 0.00 0.00 0.00 46 1015.6
20220626232833 35 179 6.4 16.1 0.00 0.00 0.00 46 1015.5
20220626232734 35 99 6.4 16.1 0.00 0.00 0.00 46 1015.6
20220626232634 35 157 8.0 16.1 0.00 0.00 0.00 46 1015.6
20220626232537 35 125 8.0 16.1 0.00 0.00 0.00 46 1015.6
20220626232436 35 137 9.7 16.1 0.00 0.00 0.00 46 1015.5
20220626232332 35 149 11.3 16.1 0.00 0.00 0.00 46 1015.6
20220626232234 36 166 8.0 16.1 0.00 0.00 0.00 46 1015.5
20220626232135 36 159 6.4 16.1 0.00 0.00 0.00 46 1015.5
20220626232045 35 154 6.4 16.1 0.00 0.00 0.00 47 1015.5
20220626231933 35 144 6.4 16.1 0.00 0.00 0.00 47 1015.5
20220626231834 35 116 8.0 16.1 0.00 0.00 0.00 46 1015.5
20220626231734 35 127 9.7 16.1 0.00 0.00 0.00 46 1015.6
20220626231634 35 107 9.7 16.1 0.00 0.00 0.00 46 1015.6
20220626231536 35 113 11.3 16.1 0.00 0.00 0.00 46 1015.6
20220626231434 36 116 9.7 16.1 0.00 0.00 0.00 46 1015.6
20220626231333 36 111 8.0 11.3 0.00 0.00 0.00 45 1015.6
20220626231234 36 111 8.0 11.3 0.00 0.00 0.00 45 1015.6
20220626231138 36 128 3.2 11.3 0.00 0.00 0.00 45 1015.6
20220626231034 36 138 0.0 6.4 0.00 0.00 0.00 44 1015.5
20220626230934 36 131 0.0 0.0 0.00 0.00 0.00 44 1015.5
20220626230838 36 165 0.0 0.0 0.00 0.00 0.00 44 1015.5
20220626230734 36 161 0.0 0.0 0.00 0.00 0.00 44 1015.6
20220626230635 36 135 0.0 0.0 0.00 0.00 0.00 45 1015.5
20220626230533 36 125 0.0 0.0 0.00 0.00 0.00 44 1015.5
20220626230435 36 134 0.0 0.0 0.00 0.00 0.00 44 1015.5
20220626230334 36 130 0.0 0.0 0.00 0.00 0.00 44 1015.5
20220626230235 36 117 0.0 0.0 0.00 0.00 0.00 44 1015.5
20220626230137 36 141 0.0 0.0 0.00 0.00 0.00 43 1015.4
20220626230034 36 123 0.0 0.0 0.00 0.00 0.00 43 1015.5
20220626225934 36 123 0.0 0.0 0.00 0.00 0.00 43 1015.5
20220626225834 36 166 0.0 0.0 0.00 0.00 0.00 43 1015.5
20220626225734 36 123 0.0 0.0 0.00 0.00 0.00 43 1015.5
20220626225634 36 116 0.0 0.0 0.00 0.00 0.00 43 1015.5
20220626225534 36 157 0.0 0.0 0.00 0.00 0.00 43 1015.5
20220626225436 36 162 0.0 0.0 0.00 0.00 0.00 43 1015.5
20220626225335 36 166 0.0 0.0 0.00 0.00 0.00 43 1015.5
20220626225233 36 159 0.0 0.0 0.00 0.00 0.00 44 1015.6
20220626225135 36 142 0.0 0.0 0.00 0.00 0.00 44 1015.6
20220626225033 36 140 0.0 0.0 0.00 0.00 0.00 44 1015.5
20220626224934 36 144 0.0 0.0 0.00 0.00 0.00 44 1015.5
20220626224834 36 155 0.0 0.0 0.00 0.00 0.00 44 1015.4
20220626224737 36 125 0.0 0.0 0.00 0.00 0.00 44 1015.5
20220626224633 36 145 0.0 0.0 0.00 0.00 0.00 43 1015.4
20220626224533 36 171 0.0 0.0 0.00 0.00 0.00 43 1015.3
20220626224439 36 157 0.0 0.0 0.00 0.00 0.00 43 1015.4
20220626224336 36 168 0.0 0.0 0.00 0.00 0.00 43 1015.4
20220626224233 36 114 0.0 0.0 0.00 0.00 0.00 43 1015.4
20220626224134 36 142 0.0 0.0 0.00 0.00 0.00 43 1015.4
20220626224034 36 173 0.0 0.0 0.00 0.00 0.00 44 1015.4
20220626223933 36 185 0.0 0.0 0.00 0.00 0.00 44 1015.4
20220626223834 36 183 0.0 0.0 0.00 0.00 0.00 44 1015.4
20220626223734 36 175 0.0 0.0 0.00 0.00 0.00 43 1015.4
20220626223636 36 141 0.0 0.0 0.00 0.00 0.00 44 1015.4
20220626223534 36 117 0.0 0.0 0.00 0.00 0.00 44 1015.4
20220626223434 36 168 0.0 0.0 0.00 0.00 0.00 44 1015.4
20220626223333 36 209 0.0 0.0 0.00 0.00 0.00 43 1015.4
20220626223233 36 179 0.0 0.0 0.00 0.00 0.00 43 1015.4
20220626223133 36 159 0.0 0.0 0.00 0.00 0.00 43 1015.4
20220626223036 36 159 0.0 0.0 0.00 0.00 0.00 43 1015.4
20220626222936 36 159 0.0 9.7 0.00 0.00 0.00 43 1015.5
20220626222833 36 154 0.0 11.3 0.00 0.00 0.00 43 1015.5
20220626222734 36 154 0.0 11.3 0.00 0.00 0.00 43 1015.4
20220626222634 36 137 0.0 11.3 0.00 0.00 0.00 44 1015.5
20220626222536 36 109 0.0 11.3 0.00 0.00 0.00 44 1015.4
20220626222433 36 93 0.0 14.5 0.00 0.00 0.00 44 1015.5
20220626222334 36 171 0.0 14.5 0.00 0.00 0.00 44 1015.6
20220626222233 35 176 0.0 14.5 0.00 0.00 0.00 44 1015.5
20220626222135 35 151 3.2 14.5 0.00 0.00 0.00 44 1015.6
20220626222034 35 165 6.4 14.5 0.00 0.00 0.00 45 1015.6
20220626221934 35 179 8.0 14.5 0.00 0.00 0.00 45 1015.6
20220626221833 35 176 8.0 14.5 0.00 0.00 0.00 44 1015.6
20220626221737 35 176 8.0 14.5 0.00 0.00 0.00 45 1015.6
20220626221637 35 200 9.7 14.5 0.00 0.00 0.00 45 1015.7
20220626221536 35 204 9.7 14.5 0.00 0.00 0.00 45 1015.7
20220626221436 35 173 9.7 14.5 0.00 0.00 0.00 44 1015.6
20220626221338 35 171 8.0 16.1 0.00 0.00 0.00 44 1015.7
20220626221234 35 158 9.7 19.3 0.00 0.00 0.00 44 1015.7
20220626221132 35 165 9.7 19.3 0.00 0.00 0.00 45 1015.8
20220626221033 35 140 9.7 19.3 0.00 0.00 0.00 46 1015.8
20220626220935 35 149 9.7 19.3 0.00 0.00 0.00 46 1015.9
20220626220833 35 185 9.7 19.3 0.00 0.00 0.00 45 1015.7
20220626220734 35 186 8.0 19.3 0.00 0.00 0.00 46 1015.8
20220626220634 35 209 8.0 19.3 0.00 0.00 0.00 46 1015.9
20220626220533 35 176 9.7 19.3 0.00 0.00 0.00 46 1015.8
20220626220434 35 157 12.9 19.3 0.00 0.00 0.00 45 1015.9
20220626220335 35 171 14.5 19.3 0.00 0.00 0.00 45 1015.8
20220626220233 35 166 14.5 19.3 0.00 0.00 0.00 45 1015.9
20220626220133 35 158 12.9 17.7 0.00 0.00 0.00 45 1015.9
20220626220034 35 173 12.9 16.1 0.00 0.00 0.00 45 1015.9
20220626215935 35 190 9.7 20.9 0.00 0.00 0.00 45 1015.9
20220626215834 35 157 8.0 20.9 0.00 0.00 0.00 45 1016.0
20220626215734 35 162 8.0 20.9 0.00 0.00 0.00 45 1016.0
20220626215634 35 199 8.0 20.9 0.00 0.00 0.00 45 1016.0
20220626215533 35 217 8.0 20.9 0.00 0.00 0.00 46 1016.0
20220626215433 35 210 6.4 20.9 0.00 0.00 0.00 46 1016.1
20220626215335 35 255 9.7 20.9 0.00 0.00 0.00 46 1016.0
20220626215234 35 223 9.7 20.9 0.00 0.00 0.00 45 1016.1
20220626215135 35 223 9.7 20.9 0.00 0.00 0.00 46 1016.1
20220626215035 35 204 12.9 20.9 0.00 0.00 0.00 45 1016.1
20220626214934 35 250 12.9 19.3 0.00 0.00 0.00 45 1016.1
20220626214834 35 212 9.7 19.3 0.00 0.00 0.00 46 1016.1
20220626214734 35 212 9.7 19.3 0.00 0.00 0.00 46 1016.0
20220626214633 35 172 11.3 19.3 0.00 0.00 0.00 46 1016.1
20220626214534 35 207 12.9 19.3 0.00 0.00 0.00 46 1016.1
20220626214434 35 216 12.9 20.9 0.00 0.00 0.00 46 1016.1
20220626214334 35 212 12.9 20.9 0.00 0.00 0.00 46 1016.0
20220626214234 35 186 11.3 20.9 0.00 0.00 0.00 46 1016.1
20220626214138 36 224 12.9 20.9 0.00 0.00 0.00 45 1016.1
20220626214033 36 210 12.9 20.9 0.00 0.00 0.00 46 1016.1
20220626213935 36 216 9.7 20.9 0.00 0.00 0.00 46 1016.0
20220626213833 36 230 9.7 20.9 0.00 0.00 0.00 46 1016.1
20220626213734 36 206 11.3 20.9 0.00 0.00 0.00 46 1016.1
20220626213634 36 210 14.5 20.9 0.00 0.00 0.00 45 1016.1
20220626213536 36 193 14.5 20.9 0.00 0.00 0.00 45 1016.1
20220626213433 36 202 12.9 19.3 0.00 0.00 0.00 45 1016.1
20220626213333 36 195 11.3 19.3 0.00 0.00 0.00 45 1016.1
20220626213233 36 200 12.9 19.3 0.00 0.00 0.00 45 1016.1
20220626213135 36 192 6.4 19.3 0.00 0.00 0.00 45 1016.1
20220626213034 36 190 0.0 9.7 0.00 0.00 0.00 45 1016.1
20220626212935 36 217 0.0 0.0 0.00 0.00 0.00 45 1016.1
20220626212833 36 219 0.0 0.0 0.00 0.00 0.00 44 1016.1
20220626212735 36 213 0.0 0.0 0.00 0.00 0.00 44 1016.1
20220626212634 36 185 0.0 0.0 0.00 0.00 0.00 44 1016.0
20220626212533 36 180 0.0 0.0 0.00 0.00 0.00 44 1016.0
20220626212433 36 193 0.0 0.0 0.00 0.00 0.00 44 1016.0
20220626212333 36 176 0.0 0.0 0.00 0.00 0.00 44 1016.0
20220626212234 36 192 0.0 0.0 0.00 0.00 0.00 45 1016.2
20220626212134 36 257 0.0 0.0 0.00 0.00 0.00 45 1016.1
20220626212033 36 219 0.0 0.0 0.00 0.00 0.00 46 1016.2
20220626211934 36 189 0.0 0.0 0.00 0.00 0.00 46 1016.2
20220626211834 36 169 0.0 0.0 0.00 0.00 0.00 45 1016.1
20220626211732 36 169 0.0 0.0 0.00 0.00 0.00 45 1016.2
20220626211633 36 169 0.0 0.0 0.00 0.00 0.00 45 1016.1
20220626211533 36 117 0.0 0.0 0.00 0.00 0.00 45 1016.2
20220626211433 36 113 0.0 0.0 0.00 0.00 0.00 45 1016.2
20220626211331 36 142 0.0 0.0 0.00 0.00 0.00 44 1016.2
20220626211231 36 171 0.0 0.0 0.00 0.00 0.00 44 1016.2
20220626211129 36 166 0.0 0.0 0.00 0.00 0.00 44 1016.2
20220626211026 36 175 0.0 0.0 0.00 0.00 0.00 44 1016.2
20220626210925 36 185 0.0 0.0 0.00 0.00 0.00 44 1016.2
20220626210825 36 180 0.0 0.0 0.00 0.00 0.00 45 1016.2
20220626210725 36 61 0.0 0.0 0.00 0.00 0.00 47 1016.2
20220626210621 36 47 0.0 0.0 0.00 0.00 0.00 46 1016.2
20220626210518 36 87 0.0 0.0 0.00 0.00 0.00 46 1016.3
20220626210416 36 99 0.0 0.0 0.00 0.00 0.00 45 1016.3
20220626210316 36 103 0.0 0.0 0.00 0.00 0.00 45 1016.3
20220626210214 36 120 0.0 0.0 0.00 0.00 0.00 45 1016.3
20220626210110 36 168 0.0 0.0 0.00 0.00 0.00 45 1016.3
20220626210010 36 172 0.0 0.0 0.00 0.00 0.00 45 1016.3
20220626205909 36 164 0.0 0.0 0.00 0.00 0.00 45 1016.3
20220626205812 36 158 0.0 0.0 0.00 0.00 0.00 45 1016.4
20220626205708 36 96 0.0 0.0 0.00 0.00 0.00 45 1016.3
20220626205608 36 147 0.0 0.0 0.00 0.00 0.00 45 1016.3
20220626205508 36 135 0.0 0.0 0.00 0.00 0.00 46 1016.3
20220626205408 36 171 0.0 0.0 0.00 0.00 0.00 46 1016.4
20220626205307 36 96 0.0 0.0 0.00 0.00 0.00 46 1016.4
20220626205207 36 127 0.0 0.0 0.00 0.00 0.00 46 1016.4
20220626205107 36 106 0.0 0.0 0.00 0.00 0.00 45 1016.5
20220626205007 36 134 0.0 0.0 0.00 0.00 0.00 46 1016.5
20220626204908 36 104 0.0 0.0 0.00 0.00 0.00 46 1016.5
20220626204810 36 102 0.0 0.0 0.00 0.00 0.00 46 1016.5
20220626204711 36 100 0.0 0.0 0.00 0.00 0.00 46 1016.5
20220626204608 36 110 0.0 0.0 0.00 0.00 0.00 45 1016.5
20220626204507 36 116 0.0 0.0 0.00 0.00 0.00 45 1016.5
20220626204412 36 124 0.0 0.0 0.00 0.00 0.00 45 1016.5
20220626204307 36 155 0.0 0.0 0.00 0.00 0.00 45 1016.5
20220626204207 36 162 0.0 0.0 0.00 0.00 0.00 46 1016.5
20220626204108 36 230 0.0 0.0 0.00 0.00 0.00 46 1016.5
20220626204008 36 111 0.0 0.0 0.00 0.00 0.00 46 1016.5
20220626203907 36 116 0.0 0.0 0.00 0.00 0.00 46 1016.6
20220626203807 36 80 0.0 0.0 0.00 0.00 0.00 47 1016.6
20220626203708 36 78 0.0 0.0 0.00 0.00 0.00 47 1016.6
20220626203609 36 47 0.0 0.0 0.00 0.00 0.00 47 1016.7
20220626203507 36 47 0.0 0.0 0.00 0.00 0.00 46 1016.7
20220626203409 36 61 0.0 0.0 0.00 0.00 0.00 46 1016.7
20220626203307 36 104 0.0 0.0 0.00 0.00 0.00 47 1016.8